| time (UTC) | temp C | wind direction | speed KPH | gust KPH | rain 1hr cm | rain 24hr cm | rain mn cm | humidity % | barometer mb |
| 20260504110623 | 15 | 322 | 35.4 | 38.6 | 0.00 | 0.03 | 0.00 | 1 | 1018.3 |
| 20260504110525 | 15 | 322 | 35.4 | 43.5 | 0.00 | 0.03 | 0.00 | 1 | 1018.3 |
| 20260504110423 | 15 | 322 | 35.4 | 43.5 | 0.00 | 0.03 | 0.00 | 1 | 1018.3 |
| 20260504110324 | 15 | 313 | 35.4 | 43.5 | 0.00 | 0.03 | 0.00 | 1 | 1018.3 |
| 20260504110229 | 15 | 321 | 35.4 | 43.5 | 0.00 | 0.03 | 0.00 | 1 | 1018.4 |
| 20260504110223 | 15 | 313 | 35.4 | 43.5 | 0.00 | 0.03 | 0.00 | 1 | 1018.3 |
| 20260504110217 | 15 | 321 | 35.4 | 43.5 | 0.00 | 0.03 | 0.00 | 1 | 1018.4 |
| 20260504110210 | 15 | 313 | 35.4 | 43.5 | 0.00 | 0.03 | 0.00 | 1 | 1018.3 |
| 20260504110204 | 15 | 321 | 35.4 | 43.5 | 0.00 | 0.03 | 0.00 | 1 | 1018.4 |
| 20260504110200 | 15 | 313 | 35.4 | 43.5 | 0.00 | 0.03 | 0.00 | 1 | 1018.3 |
| 20260504100514 | 15 | 147 | 37.0 | 51.5 | 0.00 | 0.03 | 0.00 | 1 | 1018.4 |
| 20260504100413 | 15 | 146 | 37.0 | 48.3 | 0.00 | 0.03 | 0.00 | 1 | 1018.3 |
| 20260504100314 | 15 | 150 | 37.0 | 48.3 | 0.00 | 0.03 | 0.00 | 1 | 1018.4 |
| 20260504100213 | 15 | 149 | 37.0 | 48.3 | 0.00 | 0.03 | 0.00 | 1 | 1018.4 |
| 20260504100110 | 15 | 146 | 38.6 | 48.3 | 0.00 | 0.03 | 0.00 | 1 | 1018.5 |
| 20260504081920 | 15 | 149 | 40.2 | 51.5 | 0.00 | 0.03 | 0.00 | 1 | 1018.1 |
| 20260504081821 | 15 | 150 | 40.2 | 51.5 | 0.00 | 0.03 | 0.00 | 1 | 1018.1 |
| 20260504081720 | 15 | 148 | 40.2 | 51.5 | 0.00 | 0.03 | 0.00 | 1 | 1018.3 |
| 20260504081616 | 15 | 147 | 40.2 | 51.5 | 0.00 | 0.03 | 0.00 | 1 | 1018.3 |
| 20260504081513 | 15 | 149 | 40.2 | 51.5 | 0.00 | 0.03 | 0.00 | 1 | 1018.3 |
| 20260504081415 | 15 | 148 | 40.2 | 49.9 | 0.00 | 0.03 | 0.00 | 1 | 1018.2 |
| 20260504081315 | 15 | 148 | 40.2 | 49.9 | 0.00 | 0.03 | 0.00 | 1 | 1018.3 |
| 20260504081215 | 15 | 150 | 40.2 | 49.9 | 0.00 | 0.03 | 0.00 | 1 | 1018.2 |
| 20260504081111 | 15 | 147 | 40.2 | 49.9 | 0.00 | 0.03 | 0.00 | 1 | 1018.2 |
| 20260504081007 | 15 | 146 | 38.6 | 49.9 | 0.00 | 0.03 | 0.00 | 1 | 1018.2 |
| 20260504080907 | 15 | 146 | 38.6 | 48.3 | 0.00 | 0.03 | 0.00 | 1 | 1018.1 |
| 20260504080807 | 15 | 146 | 38.6 | 48.3 | 0.00 | 0.03 | 0.00 | 1 | 1018.2 |
| 20260504080707 | 15 | 149 | 38.6 | 51.5 | 0.00 | 0.03 | 0.00 | 1 | 1018.2 |
| 20260504080608 | 15 | 146 | 38.6 | 51.5 | 0.00 | 0.03 | 0.00 | 1 | 1018.2 |
| 20260504080507 | 15 | 144 | 38.6 | 51.5 | 0.00 | 0.03 | 0.00 | 1 | 1018.0 |
| 20260504080407 | 15 | 147 | 38.6 | 51.5 | 0.00 | 0.03 | 0.00 | 1 | 1018.2 |
| 20260504080307 | 15 | 148 | 37.0 | 51.5 | 0.00 | 0.03 | 0.00 | 1 | 1018.1 |
| 20260504080206 | 15 | 148 | 37.0 | 51.5 | 0.00 | 0.03 | 0.00 | 1 | 1018.0 |
| 20260504080108 | 15 | 151 | 37.0 | 51.5 | 0.00 | 0.03 | 0.00 | 1 | 1018.1 |
| 20260504070357 | 15 | 152 | 38.6 | 51.5 | 0.00 | 0.03 | 0.00 | 1 | 1017.5 |
| 20260504070300 | 15 | 147 | 40.2 | 51.5 | 0.00 | 0.03 | 0.00 | 1 | 1017.4 |
| 20260504070153 | 15 | 147 | 40.2 | 51.5 | 0.00 | 0.03 | 0.00 | 1 | 1017.4 |
| 20260504060240 | 14 | 144 | 41.8 | 54.7 | 0.00 | 0.03 | 0.00 | 1 | 1016.9 |
| 20260504060139 | 14 | 148 | 41.8 | 51.5 | 0.00 | 0.03 | 0.00 | 1 | 1016.9 |
| 20260504050728 | 14 | 148 | 40.2 | 49.9 | 0.00 | 0.03 | 0.00 | 1 | 1016.5 |
| 20260504050628 | 14 | 147 | 41.8 | 49.9 | 0.00 | 0.03 | 0.00 | 1 | 1016.6 |
| 20260504050526 | 14 | 148 | 41.8 | 53.1 | 0.00 | 0.03 | 0.00 | 1 | 1016.5 |
| 20260504050428 | 14 | 150 | 41.8 | 53.1 | 0.00 | 0.03 | 0.00 | 1 | 1016.5 |
| 20260504050323 | 14 | 147 | 41.8 | 53.1 | 0.00 | 0.03 | 0.00 | 1 | 1016.5 |
| 20260504050223 | 14 | 149 | 41.8 | 53.1 | 0.00 | 0.03 | 0.00 | 1 | 1016.6 |
| 20260504050123 | 14 | 149 | 41.8 | 53.1 | 0.00 | 0.03 | 0.00 | 1 | 1016.5 |
| 20260504050023 | 14 | 147 | 41.8 | 53.1 | 0.00 | 0.03 | 0.00 | 1 | 1016.5 |
| 20260504045922 | 14 | 147 | 40.2 | 53.1 | 0.00 | 0.03 | 0.00 | 1 | 1016.5 |
| 20260504045818 | 14 | 150 | 40.2 | 53.1 | 0.00 | 0.03 | 0.00 | 1 | 1016.4 |
| 20260504045715 | 14 | 149 | 40.2 | 53.1 | 0.00 | 0.03 | 0.00 | 1 | 1016.4 |
| 20260504045615 | 14 | 147 | 38.6 | 53.1 | 0.00 | 0.03 | 0.00 | 1 | 1016.3 |
| 20260504045516 | 14 | 150 | 38.6 | 49.9 | 0.00 | 0.03 | 0.00 | 1 | 1016.4 |
| 20260504045415 | 14 | 150 | 38.6 | 48.3 | 0.00 | 0.03 | 0.00 | 1 | 1016.5 |
| 20260504045309 | 14 | 151 | 38.6 | 49.9 | 0.00 | 0.03 | 0.00 | 1 | 1016.3 |
| 20260504045209 | 14 | 151 | 38.6 | 49.9 | 0.00 | 0.03 | 0.00 | 1 | 1016.3 |
| 20260504045109 | 14 | 151 | 38.6 | 49.9 | 0.00 | 0.03 | 0.00 | 1 | 1016.3 |
| 20260504045008 | 14 | 150 | 38.6 | 49.9 | 0.00 | 0.03 | 0.00 | 1 | 1016.3 |
| 20260504044910 | 14 | 149 | 38.6 | 49.9 | 0.00 | 0.03 | 0.00 | 1 | 1016.3 |
| 20260504044804 | 14 | 148 | 40.2 | 51.5 | 0.00 | 0.03 | 0.00 | 1 | 1016.4 |
| 20260504044706 | 13 | 147 | 40.2 | 51.5 | 0.00 | 0.03 | 0.00 | 1 | 1016.4 |
| 20260504044604 | 14 | 150 | 40.2 | 51.5 | 0.00 | 0.03 | 0.00 | 1 | 1016.5 |
| 20260504044504 | 13 | 150 | 40.2 | 54.7 | 0.00 | 0.03 | 0.00 | 1 | 1016.3 |
| 20260504044404 | 13 | 148 | 41.8 | 54.7 | 0.00 | 0.03 | 0.00 | 1 | 1016.4 |
| 20260504044256 | 14 | 153 | 41.8 | 56.3 | 0.00 | 0.03 | 0.00 | 1 | 1016.4 |
| 20260504044209 | 14 | 151 | 43.5 | 56.3 | 0.00 | 0.03 | 0.00 | 1 | 1016.3 |
| 20260504044202 | 14 | 150 | 41.8 | 56.3 | 0.00 | 0.03 | 0.00 | 1 | 1016.3 |
| 20260504044155 | 14 | 150 | 43.5 | 56.3 | 0.00 | 0.03 | 0.00 | 1 | 1016.3 |
| 20260504044151 | 13 | 149 | 43.5 | 56.3 | 0.00 | 0.03 | 0.00 | 1 | 1016.3 |
| 20260504044145 | 13 | 151 | 43.5 | 56.3 | 0.00 | 0.03 | 0.00 | 1 | 1016.3 |
| 20260504043652 | 14 | 155 | 43.5 | 56.3 | 0.00 | 0.03 | 0.00 | 1 | 1016.4 |
| 20260504043552 | 14 | 153 | 41.8 | 56.3 | 0.00 | 0.03 | 0.00 | 1 | 1016.3 |
| 20260504043452 | 13 | 150 | 41.8 | 56.3 | 0.00 | 0.03 | 0.00 | 1 | 1016.2 |
| 20260504043351 | 13 | 147 | 41.8 | 54.7 | 0.00 | 0.03 | 0.00 | 1 | 1016.3 |
| 20260504043245 | 13 | 148 | 41.8 | 53.1 | 0.00 | 0.03 | 0.00 | 1 | 1016.3 |
| 20260504043151 | 13 | 152 | 41.8 | 51.5 | 0.00 | 0.03 | 0.00 | 1 | 1016.3 |
| 20260504043146 | 13 | 148 | 41.8 | 53.1 | 0.00 | 0.03 | 0.00 | 1 | 1016.3 |
| 20260504043139 | 13 | 149 | 40.2 | 51.5 | 0.00 | 0.03 | 0.00 | 1 | 1016.3 |
| 20260504043130 | 13 | 146 | 40.2 | 51.5 | 0.00 | 0.03 | 0.00 | 1 | 1016.3 |
| 20260504042738 | 13 | 154 | 40.2 | 51.5 | 0.00 | 0.03 | 0.00 | 1 | 1016.3 |
| 20260504042640 | 13 | 148 | 40.2 | 51.5 | 0.00 | 0.03 | 0.00 | 1 | 1016.3 |
| 20260504042541 | 13 | 148 | 40.2 | 51.5 | 0.00 | 0.03 | 0.00 | 1 | 1016.4 |
| 20260504042439 | 13 | 149 | 40.2 | 51.5 | 0.00 | 0.03 | 0.00 | 1 | 1016.4 |
| 20260504042339 | 13 | 148 | 40.2 | 53.1 | 0.00 | 0.03 | 0.00 | 1 | 1016.4 |
| 20260504042236 | 13 | 148 | 40.2 | 53.1 | 0.00 | 0.03 | 0.00 | 1 | 1016.4 |
| 20260504042158 | 13 | 148 | 41.8 | 53.1 | 0.00 | 0.03 | 0.00 | 1 | 1016.3 |
| 20260504042150 | 13 | 150 | 43.5 | 53.1 | 0.00 | 0.03 | 0.00 | 1 | 1016.3 |
| 20260504042145 | 13 | 148 | 41.8 | 53.1 | 0.00 | 0.03 | 0.00 | 1 | 1016.3 |
| 20260504042139 | 13 | 150 | 41.8 | 53.1 | 0.00 | 0.03 | 0.00 | 1 | 1016.3 |
| 20260504041730 | 13 | 150 | 43.5 | 53.1 | 0.00 | 0.03 | 0.00 | 1 | 1016.2 |
| 20260504041630 | 13 | 147 | 41.8 | 53.1 | 0.00 | 0.03 | 0.00 | 1 | 1016.2 |
| 20260504041529 | 13 | 151 | 41.8 | 53.1 | 0.00 | 0.03 | 0.00 | 1 | 1016.3 |
| 20260504041428 | 13 | 147 | 41.8 | 53.1 | 0.00 | 0.03 | 0.00 | 1 | 1016.2 |
| 20260504041328 | 13 | 145 | 41.8 | 51.5 | 0.00 | 0.03 | 0.00 | 1 | 1016.2 |
| 20260504041224 | 13 | 148 | 40.2 | 51.5 | 0.00 | 0.03 | 0.00 | 1 | 1016.1 |
| 20260504041123 | 13 | 147 | 41.8 | 51.5 | 0.00 | 0.03 | 0.00 | 1 | 1016.2 |
| 20260504041023 | 13 | 146 | 41.8 | 56.3 | 0.00 | 0.03 | 0.00 | 1 | 1016.1 |
| 20260504040921 | 13 | 149 | 41.8 | 56.3 | 0.00 | 0.03 | 0.00 | 1 | 1016.0 |
| 20260504040821 | 13 | 148 | 41.8 | 56.3 | 0.00 | 0.03 | 0.00 | 1 | 1016.0 |
| 20260504040716 | 13 | 153 | 43.5 | 56.3 | 0.00 | 0.03 | 0.00 | 1 | 1016.1 |
| 20260504040627 | 13 | 152 | 43.5 | 56.3 | 0.00 | 0.03 | 0.00 | 1 | 1015.9 |
| 20260504040516 | 13 | 145 | 43.5 | 56.3 | 0.00 | 0.03 | 0.00 | 1 | 1015.9 |
| 20260504040415 | 13 | 151 | 45.1 | 56.3 | 0.00 | 0.03 | 0.00 | 1 | 1015.9 |
| 20260504040318 | 13 | 153 | 45.1 | 56.3 | 0.00 | 0.03 | 0.00 | 1 | 1015.9 |
| 20260504040213 | 13 | 150 | 45.1 | 56.3 | 0.00 | 0.03 | 0.00 | 1 | 1015.9 |
| 20260504040112 | 13 | 148 | 45.1 | 56.3 | 0.00 | 0.03 | 0.00 | 1 | 1016.0 |
| 20260504040012 | 13 | 148 | 45.1 | 56.3 | 0.00 | 0.03 | 0.00 | 1 | 1015.8 |
| 20260504035912 | 13 | 151 | 45.1 | 56.3 | 0.00 | 0.03 | 0.00 | 1 | 1015.8 |
| 20260504035810 | 13 | 148 | 45.1 | 56.3 | 0.00 | 0.03 | 0.00 | 1 | 1015.8 |
| 20260504035703 | 13 | 145 | 43.5 | 53.1 | 0.00 | 0.03 | 0.00 | 1 | 1015.8 |
| 20260504035604 | 13 | 148 | 43.5 | 53.1 | 0.00 | 0.03 | 0.00 | 1 | 1015.8 |
| 20260504035505 | 13 | 148 | 43.5 | 53.1 | 0.00 | 0.03 | 0.00 | 1 | 1015.8 |
| 20260504035404 | 13 | 146 | 43.5 | 53.1 | 0.00 | 0.03 | 0.00 | 1 | 1015.8 |
| 20260504035304 | 13 | 150 | 43.5 | 49.9 | 0.00 | 0.03 | 0.00 | 1 | 1015.8 |
| 20260504035158 | 13 | 148 | 43.5 | 49.9 | 0.00 | 0.03 | 0.00 | 1 | 1015.7 |
| 20260504035058 | 13 | 150 | 43.5 | 49.9 | 0.00 | 0.03 | 0.00 | 1 | 1015.7 |
| 20260504034958 | 13 | 146 | 43.5 | 53.1 | 0.00 | 0.03 | 0.00 | 1 | 1015.7 |
| 20260504034857 | 13 | 147 | 43.5 | 53.1 | 0.00 | 0.03 | 0.00 | 1 | 1015.7 |
| 20260504034758 | 13 | 151 | 45.1 | 54.7 | 0.00 | 0.03 | 0.00 | 1 | 1015.7 |
| 20260504034652 | 13 | 149 | 45.1 | 54.7 | 0.00 | 0.03 | 0.00 | 1 | 1015.6 |
| 20260504034553 | 13 | 146 | 45.1 | 54.7 | 0.00 | 0.03 | 0.00 | 1 | 1015.6 |
| 20260504034452 | 13 | 148 | 46.7 | 54.7 | 0.00 | 0.03 | 0.00 | 1 | 1015.6 |
| 20260504034352 | 13 | 148 | 46.7 | 54.7 | 0.00 | 0.03 | 0.00 | 1 | 1015.6 |
| 20260504034251 | 13 | 146 | 46.7 | 54.7 | 0.00 | 0.03 | 0.00 | 1 | 1015.6 |
| 20260504034144 | 13 | 150 | 46.7 | 54.7 | 0.00 | 0.03 | 0.00 | 1 | 1015.6 |
| 20260504034045 | 13 | 150 | 46.7 | 56.3 | 0.00 | 0.03 | 0.00 | 1 | 1015.6 |
| 20260504033945 | 13 | 150 | 46.7 | 56.3 | 0.00 | 0.03 | 0.00 | 1 | 1015.5 |
| 20260504033846 | 13 | 144 | 46.7 | 56.3 | 0.00 | 0.03 | 0.00 | 1 | 1015.6 |
| 20260504033746 | 13 | 147 | 46.7 | 56.3 | 0.00 | 0.03 | 0.00 | 1 | 1015.5 |
| 20260504033638 | 13 | 151 | 46.7 | 57.9 | 0.00 | 0.03 | 0.00 | 1 | 1015.5 |
| 20260504033539 | 13 | 150 | 45.1 | 57.9 | 0.00 | 0.03 | 0.00 | 1 | 1015.6 |
| 20260504033439 | 13 | 150 | 45.1 | 57.9 | 0.00 | 0.03 | 0.00 | 1 | 1015.5 |
| 20260504033340 | 13 | 146 | 45.1 | 57.9 | 0.00 | 0.03 | 0.00 | 1 | 1015.5 |
| 20260504033240 | 13 | 148 | 45.1 | 57.9 | 0.00 | 0.03 | 0.00 | 1 | 1015.5 |
| 20260504033135 | 13 | 148 | 45.1 | 57.9 | 0.00 | 0.03 | 0.00 | 1 | 1015.6 |
| 20260504033036 | 13 | 150 | 43.5 | 57.9 | 0.00 | 0.03 | 0.00 | 1 | 1015.6 |
| 20260504032935 | 13 | 147 | 43.5 | 57.9 | 0.00 | 0.03 | 0.00 | 1 | 1015.5 |
| 20260504032836 | 13 | 148 | 41.8 | 57.9 | 0.00 | 0.03 | 0.00 | 1 | 1015.6 |
| 20260504032734 | 13 | 146 | 40.2 | 57.9 | 0.00 | 0.03 | 0.00 | 1 | 1015.6 |
| 20260504032629 | 13 | 146 | 38.6 | 53.1 | 0.00 | 0.03 | 0.00 | 1 | 1015.6 |
| 20260504032529 | 13 | 148 | 40.2 | 53.1 | 0.00 | 0.03 | 0.00 | 1 | 1015.6 |
| 20260504032429 | 13 | 147 | 40.2 | 54.7 | 0.00 | 0.03 | 0.00 | 1 | 1015.5 |
| 20260504032330 | 13 | 148 | 40.2 | 54.7 | 0.00 | 0.03 | 0.00 | 1 | 1015.6 |
| 20260504032228 | 13 | 150 | 38.6 | 54.7 | 0.00 | 0.03 | 0.00 | 1 | 1015.5 |
| 20260504032122 | 13 | 144 | 38.6 | 54.7 | 0.00 | 0.03 | 0.00 | 1 | 1015.6 |
| 20260504032022 | 13 | 148 | 40.2 | 54.7 | 0.00 | 0.03 | 0.00 | 1 | 1015.5 |
| 20260504031922 | 13 | 149 | 41.8 | 54.7 | 0.00 | 0.03 | 0.00 | 1 | 1015.6 |
| 20260504031821 | 13 | 150 | 41.8 | 54.7 | 0.00 | 0.03 | 0.00 | 1 | 1015.6 |
| 20260504031722 | 13 | 153 | 43.5 | 54.7 | 0.00 | 0.03 | 0.00 | 1 | 1015.6 |
| 20260504031616 | 13 | 148 | 43.5 | 54.7 | 0.00 | 0.03 | 0.00 | 1 | 1015.5 |
| 20260504031516 | 13 | 148 | 43.5 | 54.7 | 0.00 | 0.03 | 0.00 | 1 | 1015.6 |
| 20260504031417 | 13 | 152 | 43.5 | 53.1 | 0.00 | 0.03 | 0.00 | 1 | 1015.6 |
| 20260504031316 | 13 | 152 | 43.5 | 53.1 | 0.00 | 0.03 | 0.00 | 1 | 1015.6 |
| 20260504031216 | 13 | 150 | 43.5 | 53.1 | 0.00 | 0.03 | 0.00 | 1 | 1015.5 |
| 20260504031110 | 13 | 146 | 43.5 | 53.1 | 0.00 | 0.03 | 0.00 | 1 | 1015.6 |
| 20260504031010 | 13 | 149 | 41.8 | 53.1 | 0.00 | 0.03 | 0.00 | 1 | 1015.5 |
| 20260504030911 | 13 | 146 | 41.8 | 53.1 | 0.00 | 0.03 | 0.00 | 1 | 1015.5 |
| 20260504030810 | 13 | 146 | 41.8 | 53.1 | 0.00 | 0.03 | 0.00 | 1 | 1015.6 |
| 20260504030710 | 13 | 148 | 41.8 | 53.1 | 0.00 | 0.03 | 0.00 | 1 | 1015.5 |
| 20260504030608 | 13 | 149 | 41.8 | 53.1 | 0.00 | 0.03 | 0.00 | 1 | 1015.5 |
| 20260504030505 | 13 | 148 | 41.8 | 53.1 | 0.00 | 0.03 | 0.00 | 1 | 1015.5 |
| 20260504030403 | 13 | 149 | 41.8 | 56.3 | 0.00 | 0.03 | 0.00 | 1 | 1015.5 |
| 20260504030302 | 13 | 150 | 41.8 | 56.3 | 0.00 | 0.03 | 0.00 | 1 | 1015.6 |
| 20260504030204 | 13 | 147 | 43.5 | 56.3 | 0.00 | 0.03 | 0.00 | 1 | 1015.5 |
| 20260504030057 | 13 | 148 | 43.5 | 56.3 | 0.00 | 0.03 | 0.00 | 1 | 1015.6 |
| 20260504025959 | 13 | 148 | 43.5 | 56.3 | 0.00 | 0.03 | 0.00 | 1 | 1015.5 |
| 20260504025858 | 13 | 150 | 43.5 | 56.3 | 0.00 | 0.03 | 0.00 | 1 | 1015.5 |
| 20260504025757 | 13 | 153 | 43.5 | 56.3 | 0.00 | 0.03 | 0.00 | 1 | 1015.5 |
| 20260504025657 | 13 | 149 | 43.5 | 56.3 | 0.00 | 0.03 | 0.00 | 1 | 1015.5 |
| 20260504025551 | 13 | 150 | 43.5 | 56.3 | 0.00 | 0.03 | 0.00 | 1 | 1015.5 |
| 20260504025452 | 13 | 148 | 41.8 | 56.3 | 0.00 | 0.03 | 0.00 | 1 | 1015.5 |
| 20260504025352 | 13 | 148 | 41.8 | 51.5 | 0.00 | 0.03 | 0.00 | 1 | 1015.5 |
| 20260504025253 | 13 | 150 | 40.2 | 51.5 | 0.00 | 0.03 | 0.00 | 1 | 1015.5 |
| 20260504025152 | 13 | 148 | 40.2 | 51.5 | 0.00 | 0.03 | 0.00 | 1 | 1015.5 |
| 20260504025047 | 13 | 148 | 38.6 | 51.5 | 0.00 | 0.03 | 0.00 | 1 | 1015.5 |
| 20260504024949 | 13 | 149 | 38.6 | 49.9 | 0.00 | 0.03 | 0.00 | 1 | 1015.5 |
| 20260504024847 | 13 | 145 | 38.6 | 48.3 | 0.00 | 0.03 | 0.00 | 1 | 1015.5 |
| 20260504024748 | 13 | 150 | 38.6 | 48.3 | 0.00 | 0.03 | 0.00 | 1 | 1015.5 |
| 20260504024646 | 13 | 147 | 37.0 | 48.3 | 0.00 | 0.03 | 0.00 | 1 | 1015.5 |
| 20260504024540 | 13 | 150 | 38.6 | 51.5 | 0.00 | 0.03 | 0.00 | 1 | 1015.5 |
| 20260504024439 | 13 | 154 | 38.6 | 51.5 | 0.00 | 0.03 | 0.00 | 1 | 1015.5 |
| 20260504024341 | 13 | 153 | 40.2 | 51.5 | 0.00 | 0.03 | 0.00 | 1 | 1015.5 |
| 20260504024238 | 13 | 152 | 40.2 | 51.5 | 0.00 | 0.03 | 0.00 | 1 | 1015.6 |
| 20260504024139 | 13 | 155 | 40.2 | 51.5 | 0.00 | 0.03 | 0.00 | 1 | 1015.6 |
| 20260504024033 | 13 | 150 | 41.8 | 51.5 | 0.00 | 0.03 | 0.00 | 1 | 1015.5 |
| 20260504023934 | 13 | 151 | 41.8 | 51.5 | 0.00 | 0.03 | 0.00 | 1 | 1015.6 |
| 20260504023834 | 13 | 152 | 41.8 | 51.5 | 0.00 | 0.03 | 0.00 | 1 | 1015.5 |
| 20260504023733 | 13 | 151 | 43.5 | 51.5 | 0.00 | 0.03 | 0.00 | 1 | 1015.5 |
| 20260504023634 | 13 | 149 | 43.5 | 51.5 | 0.00 | 0.03 | 0.00 | 1 | 1015.5 |
| 20260504023530 | 13 | 151 | 43.5 | 51.5 | 0.00 | 0.03 | 0.00 | 1 | 1015.5 |
| 20260504023429 | 13 | 150 | 43.5 | 54.7 | 0.00 | 0.03 | 0.00 | 1 | 1015.6 |
| 20260504023328 | 13 | 150 | 43.5 | 54.7 | 0.00 | 0.03 | 0.00 | 1 | 1015.6 |
| 20260504023228 | 13 | 150 | 43.5 | 54.7 | 0.00 | 0.03 | 0.00 | 1 | 1015.6 |
| 20260504023128 | 13 | 150 | 43.5 | 54.7 | 0.00 | 0.03 | 0.00 | 1 | 1015.6 |
| 20260504023023 | 13 | 150 | 41.8 | 54.7 | 0.00 | 0.03 | 0.00 | 1 | 1015.6 |
| 20260504022922 | 13 | 148 | 41.8 | 54.7 | 0.00 | 0.03 | 0.00 | 1 | 1015.5 |
| 20260504022822 | 13 | 150 | 41.8 | 54.7 | 0.00 | 0.03 | 0.00 | 1 | 1015.6 |
| 20260504022722 | 13 | 150 | 43.5 | 54.7 | 0.00 | 0.03 | 0.00 | 1 | 1015.6 |
| 20260504022622 | 13 | 150 | 41.8 | 54.7 | 0.00 | 0.03 | 0.00 | 1 | 1015.6 |
| 20260504022516 | 13 | 151 | 41.8 | 54.7 | 0.00 | 0.03 | 0.00 | 1 | 1015.6 |
| 20260504022415 | 13 | 148 | 41.8 | 51.5 | 0.00 | 0.03 | 0.00 | 1 | 1015.6 |
| 20260504022316 | 13 | 150 | 40.2 | 51.5 | 0.00 | 0.03 | 0.00 | 1 | 1015.7 |
| 20260504022214 | 13 | 148 | 40.2 | 51.5 | 0.00 | 0.03 | 0.00 | 1 | 1015.6 |
| 20260504022115 | 13 | 150 | 40.2 | 51.5 | 0.00 | 0.03 | 0.00 | 1 | 1015.7 |
| 20260504022012 | 13 | 150 | 38.6 | 51.5 | 0.00 | 0.03 | 0.00 | 1 | 1015.7 |
| 20260504021910 | 13 | 150 | 38.6 | 49.9 | 0.00 | 0.03 | 0.00 | 1 | 1015.7 |
| 20260504021810 | 13 | 151 | 38.6 | 49.9 | 0.00 | 0.03 | 0.00 | 1 | 1015.7 |
| 20260504021710 | 13 | 149 | 38.6 | 57.9 | 0.00 | 0.03 | 0.00 | 1 | 1015.8 |
| 20260504021610 | 13 | 147 | 38.6 | 57.9 | 0.00 | 0.03 | 0.00 | 1 | 1015.7 |
| 20260504021504 | 13 | 152 | 40.2 | 57.9 | 0.00 | 0.03 | 0.00 | 1 | 1015.8 |
| 20260504021404 | 13 | 151 | 40.2 | 57.9 | 0.00 | 0.03 | 0.00 | 1 | 1015.7 |
| 20260504021304 | 13 | 151 | 41.8 | 57.9 | 0.00 | 0.03 | 0.00 | 1 | 1015.7 |
| 20260504021202 | 13 | 150 | 41.8 | 57.9 | 0.00 | 0.03 | 0.00 | 1 | 1015.8 |
| 20260504021103 | 13 | 152 | 40.2 | 57.9 | 0.00 | 0.03 | 0.00 | 1 | 1015.7 |
| 20260504020958 | 13 | 150 | 41.8 | 57.9 | 0.00 | 0.03 | 0.00 | 1 | 1015.8 |
| 20260504020857 | 13 | 150 | 41.8 | 57.9 | 0.00 | 0.03 | 0.00 | 1 | 1015.7 |
| 20260504020758 | 13 | 153 | 40.2 | 57.9 | 0.00 | 0.03 | 0.00 | 1 | 1015.7 |
| 20260504020656 | 13 | 147 | 40.2 | 53.1 | 0.00 | 0.03 | 0.00 | 1 | 1015.7 |
| 20260504020557 | 13 | 153 | 40.2 | 53.1 | 0.00 | 0.03 | 0.00 | 1 | 1015.7 |
| 20260504020452 | 13 | 149 | 38.6 | 53.1 | 0.00 | 0.03 | 0.00 | 1 | 1015.7 |
| 20260504020351 | 13 | 146 | 37.0 | 53.1 | 0.00 | 0.03 | 0.00 | 1 | 1015.7 |
| 20260504020253 | 13 | 144 | 38.6 | 53.1 | 0.00 | 0.03 | 0.00 | 1 | 1015.7 |
| 20260504020150 | 13 | 146 | 38.6 | 53.1 | 0.00 | 0.03 | 0.00 | 1 | 1015.7 |
| 20260504020052 | 13 | 154 | 38.6 | 53.1 | 0.00 | 0.03 | 0.00 | 1 | 1015.7 |
| 20260504015947 | 13 | 147 | 38.6 | 53.1 | 0.00 | 0.03 | 0.00 | 1 | 1015.8 |
| 20260504015847 | 13 | 152 | 38.6 | 53.1 | 0.00 | 0.03 | 0.00 | 1 | 1015.7 |
| 20260504015747 | 13 | 152 | 37.0 | 53.1 | 0.00 | 0.03 | 0.00 | 1 | 1015.8 |
| 20260504015647 | 13 | 147 | 37.0 | 51.5 | 0.00 | 0.03 | 0.00 | 1 | 1015.8 |
| 20260504015546 | 13 | 146 | 37.0 | 49.9 | 0.00 | 0.03 | 0.00 | 1 | 1015.7 |
| 20260504015439 | 13 | 153 | 38.6 | 51.5 | 0.00 | 0.03 | 0.00 | 1 | 1015.8 |
| 20260504015339 | 13 | 154 | 38.6 | 51.5 | 0.00 | 0.03 | 0.00 | 1 | 1015.7 |
| 20260504015240 | 13 | 150 | 38.6 | 53.1 | 0.00 | 0.03 | 0.00 | 1 | 1015.6 |
| 20260504015140 | 13 | 152 | 38.6 | 53.1 | 0.00 | 0.03 | 0.00 | 1 | 1015.7 |
| 20260504015040 | 13 | 150 | 40.2 | 53.1 | 0.00 | 0.03 | 0.00 | 1 | 1015.7 |
| 20260504014934 | 13 | 148 | 40.2 | 53.1 | 0.00 | 0.03 | 0.00 | 1 | 1015.7 |
| 20260504014834 | 13 | 148 | 40.2 | 53.1 | 0.00 | 0.03 | 0.00 | 1 | 1015.7 |
| 20260504014734 | 13 | 155 | 40.2 | 53.1 | 0.00 | 0.03 | 0.00 | 1 | 1015.7 |
| 20260504014634 | 13 | 152 | 41.8 | 53.1 | 0.00 | 0.03 | 0.00 | 1 | 1015.7 |
| 20260504014533 | 13 | 151 | 41.8 | 53.1 | 0.00 | 0.03 | 0.00 | 1 | 1015.8 |
| 20260504014430 | 13 | 146 | 41.8 | 53.1 | 0.00 | 0.03 | 0.00 | 1 | 1015.7 |
| 20260504014327 | 13 | 151 | 41.8 | 53.1 | 0.00 | 0.03 | 0.00 | 1 | 1015.7 |
| 20260504014228 | 13 | 150 | 41.8 | 53.1 | 0.00 | 0.03 | 0.00 | 1 | 1015.7 |
| 20260504014126 | 13 | 151 | 41.8 | 53.1 | 0.00 | 0.03 | 0.00 | 1 | 1015.7 |
| 20260504014028 | 13 | 154 | 41.8 | 53.1 | 0.00 | 0.03 | 0.00 | 1 | 1015.7 |
| 20260504013922 | 13 | 149 | 40.2 | 53.1 | 0.00 | 0.03 | 0.00 | 1 | 1015.6 |
| 20260504013823 | 13 | 147 | 40.2 | 53.1 | 0.00 | 0.03 | 0.00 | 1 | 1015.7 |
| 20260504013722 | 13 | 147 | 40.2 | 53.1 | 0.00 | 0.03 | 0.00 | 1 | 1015.7 |
| 20260504013622 | 13 | 150 | 38.6 | 53.1 | 0.00 | 0.03 | 0.00 | 1 | 1015.7 |
| 20260504013521 | 13 | 148 | 38.6 | 53.1 | 0.00 | 0.03 | 0.00 | 1 | 1015.7 |
| 20260504013417 | 13 | 152 | 38.6 | 53.1 | 0.00 | 0.03 | 0.00 | 1 | 1015.6 |
| 20260504013317 | 13 | 147 | 38.6 | 53.1 | 0.00 | 0.03 | 0.00 | 1 | 1015.8 |
| 20260504013217 | 13 | 153 | 38.6 | 53.1 | 0.00 | 0.03 | 0.00 | 1 | 1015.8 |
| 20260504013117 | 13 | 156 | 37.0 | 53.1 | 0.00 | 0.03 | 0.00 | 1 | 1015.7 |
| 20260504013016 | 13 | 154 | 37.0 | 53.1 | 0.00 | 0.03 | 0.00 | 1 | 1015.7 |
| 20260504012918 | 13 | 152 | 37.0 | 53.1 | 0.00 | 0.03 | 0.00 | 1 | 1015.7 |
| 20260504012818 | 13 | 152 | 38.6 | 53.1 | 0.00 | 0.03 | 0.00 | 1 | 1015.8 |
| 20260504012717 | 13 | 153 | 37.0 | 53.1 | 0.00 | 0.03 | 0.00 | 1 | 1015.7 |
| 20260504012618 | 13 | 152 | 37.0 | 53.1 | 0.00 | 0.03 | 0.00 | 1 | 1015.7 |
| 20260504012517 | 13 | 148 | 37.0 | 53.1 | 0.00 | 0.03 | 0.00 | 1 | 1015.6 |
| 20260504012416 | 13 | 147 | 35.4 | 49.9 | 0.00 | 0.03 | 0.00 | 1 | 1015.7 |
| 20260504012317 | 13 | 152 | 37.0 | 49.9 | 0.00 | 0.03 | 0.00 | 1 | 1015.7 |
| 20260504012217 | 13 | 153 | 35.4 | 49.9 | 0.00 | 0.03 | 0.00 | 1 | 1015.6 |
| 20260504012117 | 13 | 150 | 35.4 | 49.9 | 0.00 | 0.03 | 0.00 | 1 | 1015.7 |
| 20260504012018 | 13 | 150 | 35.4 | 49.9 | 0.00 | 0.03 | 0.00 | 1 | 1015.8 |
| 20260504011916 | 13 | 150 | 35.4 | 49.9 | 0.00 | 0.03 | 0.00 | 1 | 1015.6 |
| 20260504011818 | 13 | 150 | 35.4 | 51.5 | 0.00 | 0.03 | 0.00 | 1 | 1015.7 |
| 20260504011714 | 13 | 152 | 37.0 | 51.5 | 0.00 | 0.03 | 0.00 | 1 | 1015.5 |
| 20260504011612 | 13 | 152 | 38.6 | 53.1 | 0.00 | 0.03 | 0.00 | 1 | 1015.6 |
| 20260504011512 | 13 | 153 | 38.6 | 53.1 | 0.00 | 0.03 | 0.00 | 1 | 1015.6 |
| 20260504011410 | 13 | 153 | 38.6 | 53.1 | 0.00 | 0.03 | 0.00 | 1 | 1015.6 |
| 20260504011312 | 13 | 148 | 37.0 | 53.1 | 0.00 | 0.03 | 0.00 | 1 | 1015.6 |
| 20260504011208 | 13 | 152 | 38.6 | 53.1 | 0.00 | 0.03 | 0.00 | 1 | 1015.6 |
| 20260504011106 | 13 | 150 | 40.2 | 53.1 | 0.00 | 0.03 | 0.00 | 1 | 1015.7 |
| 20260504011006 | 13 | 151 | 40.2 | 53.1 | 0.00 | 0.03 | 0.00 | 1 | 1015.7 |
| 20260504010904 | 13 | 154 | 40.2 | 53.1 | 0.00 | 0.03 | 0.00 | 1 | 1015.7 |
| 20260504010805 | 13 | 151 | 40.2 | 53.1 | 0.00 | 0.03 | 0.00 | 1 | 1015.6 |
| 20260504010658 | 13 | 148 | 38.6 | 53.1 | 0.00 | 0.03 | 0.00 | 1 | 1015.6 |
| 20260504010601 | 13 | 151 | 38.6 | 53.1 | 0.00 | 0.03 | 0.00 | 1 | 1015.5 |
| 20260504010459 | 13 | 156 | 38.6 | 53.1 | 0.00 | 0.03 | 0.00 | 1 | 1015.6 |
| 20260504010400 | 13 | 149 | 38.6 | 53.1 | 0.00 | 0.03 | 0.00 | 1 | 1015.7 |
| 20260504010259 | 13 | 152 | 40.2 | 57.9 | 0.00 | 0.03 | 0.00 | 1 | 1015.6 |
| 20260504010153 | 13 | 150 | 38.6 | 57.9 | 0.00 | 0.03 | 0.00 | 1 | 1015.7 |
| 20260504010052 | 13 | 151 | 38.6 | 57.9 | 0.00 | 0.03 | 0.00 | 1 | 1015.6 |
| 20260504005952 | 13 | 150 | 40.2 | 57.9 | 0.00 | 0.03 | 0.00 | 1 | 1015.5 |
| 20260504005859 | 13 | 149 | 40.2 | 57.9 | 0.00 | 0.03 | 0.00 | 1 | 1015.7 |
| 20260504005754 | 13 | 149 | 41.8 | 57.9 | 0.00 | 0.03 | 0.00 | 1 | 1015.7 |
| 20260504005648 | 13 | 154 | 43.5 | 57.9 | 0.00 | 0.03 | 0.00 | 1 | 1015.8 |
| 20260504005546 | 13 | 152 | 45.1 | 57.9 | 0.00 | 0.03 | 0.00 | 1 | 1015.7 |
| 20260504005451 | 13 | 152 | 45.1 | 57.9 | 0.00 | 0.03 | 0.00 | 1 | 1015.8 |
| 20260504005348 | 13 | 152 | 45.1 | 57.9 | 0.00 | 0.03 | 0.00 | 1 | 1015.7 |
| 20260504005248 | 13 | 152 | 46.7 | 59.5 | 0.00 | 0.03 | 0.00 | 1 | 1015.7 |
| 20260504005143 | 13 | 151 | 46.7 | 59.5 | 0.00 | 0.03 | 0.00 | 1 | 1015.7 |
| 20260504005046 | 13 | 148 | 46.7 | 59.5 | 0.00 | 0.03 | 0.00 | 1 | 1015.7 |
| 20260504004943 | 13 | 151 | 48.3 | 59.5 | 0.00 | 0.03 | 0.00 | 1 | 1015.6 |
| 20260504004843 | 13 | 152 | 48.3 | 59.5 | 0.00 | 0.03 | 0.00 | 1 | 1015.6 |
| 20260504004742 | 13 | 152 | 48.3 | 59.5 | 0.00 | 0.03 | 0.00 | 1 | 1015.7 |
| 20260504004636 | 13 | 149 | 46.7 | 59.5 | 0.00 | 0.03 | 0.00 | 1 | 1015.6 |
| 20260504004535 | 13 | 147 | 45.1 | 59.5 | 0.00 | 0.03 | 0.00 | 1 | 1015.5 |
| 20260504004435 | 13 | 149 | 45.1 | 59.5 | 0.00 | 0.03 | 0.00 | 1 | 1015.5 |
| 20260504004335 | 13 | 147 | 43.5 | 59.5 | 0.00 | 0.03 | 0.00 | 1 | 1015.4 |
| 20260504004235 | 13 | 147 | 41.8 | 57.9 | 0.00 | 0.03 | 0.00 | 1 | 1015.4 |
| 20260504004130 | 13 | 152 | 40.2 | 57.9 | 0.00 | 0.03 | 0.00 | 1 | 1015.3 |
| 20260504004030 | 13 | 151 | 40.2 | 57.9 | 0.00 | 0.03 | 0.00 | 1 | 1015.5 |
| 20260504003930 | 13 | 150 | 38.6 | 57.9 | 0.00 | 0.03 | 0.00 | 1 | 1015.4 |
| 20260504003830 | 13 | 149 | 38.6 | 57.9 | 0.00 | 0.03 | 0.00 | 1 | 1015.3 |
| 20260504003729 | 13 | 148 | 38.6 | 53.1 | 0.00 | 0.03 | 0.00 | 1 | 1015.4 |
| 20260504003624 | 13 | 150 | 38.6 | 53.1 | 0.00 | 0.03 | 0.00 | 1 | 1015.5 |
| 20260504003532 | 13 | 148 | 38.6 | 54.7 | 0.00 | 0.03 | 0.00 | 1 | 1015.4 |
| 20260504003423 | 13 | 151 | 40.2 | 54.7 | 0.00 | 0.03 | 0.00 | 1 | 1015.4 |
| 20260504003322 | 13 | 153 | 40.2 | 54.7 | 0.00 | 0.03 | 0.00 | 1 | 1015.5 |
| 20260504003224 | 13 | 154 | 40.2 | 54.7 | 0.00 | 0.03 | 0.00 | 1 | 1015.4 |
| 20260504003117 | 13 | 157 | 41.8 | 54.7 | 0.00 | 0.03 | 0.00 | 1 | 1015.3 |
| 20260504003019 | 13 | 153 | 41.8 | 54.7 | 0.00 | 0.03 | 0.00 | 1 | 1015.4 |
| 20260504002918 | 13 | 154 | 40.2 | 54.7 | 0.00 | 0.03 | 0.00 | 1 | 1015.4 |
| 20260504002816 | 13 | 151 | 41.8 | 54.7 | 0.00 | 0.03 | 0.00 | 1 | 1015.4 |
| 20260504002718 | 13 | 151 | 41.8 | 57.9 | 0.00 | 0.03 | 0.00 | 1 | 1015.4 |
| 20260504002610 | 13 | 154 | 41.8 | 57.9 | 0.00 | 0.03 | 0.00 | 1 | 1015.4 |
| 20260504002510 | 13 | 152 | 41.8 | 57.9 | 0.00 | 0.03 | 0.00 | 1 | 1015.4 |
| 20260504002410 | 13 | 154 | 41.8 | 57.9 | 0.00 | 0.03 | 0.00 | 1 | 1015.3 |
| 20260504002316 | 13 | 154 | 41.8 | 57.9 | 0.00 | 0.03 | 0.00 | 1 | 1015.4 |
| 20260504002211 | 13 | 152 | 40.2 | 57.9 | 0.00 | 0.03 | 0.00 | 1 | 1015.4 |
| 20260504002108 | 13 | 153 | 40.2 | 57.9 | 0.00 | 0.03 | 0.00 | 1 | 1015.4 |
| 20260504002008 | 13 | 152 | 41.8 | 57.9 | 0.00 | 0.03 | 0.00 | 1 | 1015.4 |
| 20260504001807 | 13 | 153 | 41.8 | 57.9 | 0.00 | 0.03 | 0.00 | 1 | 1015.4 |
| 20260504001705 | 13 | 152 | 41.8 | 53.1 | 0.00 | 0.03 | 0.00 | 1 | 1015.4 |
| 20260504001600 | 13 | 145 | 41.8 | 53.1 | 0.00 | 0.03 | 0.00 | 1 | 1015.6 |
| 20260504001458 | 13 | 148 | 41.8 | 53.1 | 0.00 | 0.03 | 0.00 | 1 | 1015.4 |
| 20260504001359 | 13 | 150 | 40.2 | 53.1 | 0.00 | 0.03 | 0.00 | 1 | 1015.5 |
| 20260504001259 | 13 | 149 | 40.2 | 53.1 | 0.00 | 0.03 | 0.00 | 1 | 1015.4 |
| 20260504001200 | 13 | 152 | 41.8 | 56.3 | 0.00 | 0.03 | 0.00 | 1 | 1015.5 |
| 20260504001054 | 13 | 150 | 41.8 | 57.9 | 0.00 | 0.03 | 0.00 | 1 | 1015.4 |
| 20260504000952 | 13 | 149 | 41.8 | 57.9 | 0.00 | 0.03 | 0.00 | 1 | 1015.5 |
| 20260504000853 | 13 | 150 | 41.8 | 57.9 | 0.00 | 0.03 | 0.00 | 1 | 1015.4 |
| 20260504000753 | 13 | 148 | 40.2 | 57.9 | 0.00 | 0.03 | 0.00 | 1 | 1015.4 |
| 20260504000654 | 13 | 152 | 40.2 | 57.9 | 0.00 | 0.03 | 0.00 | 1 | 1015.5 |
| 20260504000546 | 13 | 150 | 41.8 | 57.9 | 0.00 | 0.03 | 0.00 | 1 | 1015.5 |
| 20260504000448 | 13 | 156 | 41.8 | 57.9 | 0.00 | 0.03 | 0.00 | 1 | 1015.4 |
| 20260504000348 | 13 | 147 | 41.8 | 57.9 | 0.00 | 0.03 | 0.00 | 1 | 1015.4 |
| 20260504000248 | 13 | 154 | 41.8 | 57.9 | 0.00 | 0.03 | 0.00 | 1 | 1015.4 |
| 20260504000148 | 13 | 150 | 41.8 | 57.9 | 0.00 | 0.03 | 0.00 | 1 | 1015.3 |
| 20260504000042 | 13 | 150 | 40.2 | 57.9 | 0.00 | 0.03 | 0.00 | 1 | 1015.4 |
| 20260503235943 | 13 | 151 | 40.2 | 57.9 | 0.00 | 0.03 | 0.00 | 1 | 1015.4 |
| 20260503235844 | 13 | 150 | 41.8 | 57.9 | 0.00 | 0.03 | 0.00 | 1 | 1015.4 |
| 20260503235743 | 13 | 150 | 41.8 | 57.9 | 0.00 | 0.03 | 0.00 | 1 | 1015.4 |
| 20260503235642 | 13 | 148 | 43.5 | 57.9 | 0.00 | 0.03 | 0.00 | 1 | 1015.5 |
| 20260503235535 | 13 | 148 | 43.5 | 57.9 | 0.00 | 0.03 | 0.00 | 1 | 1015.3 |
| 20260503235434 | 13 | 147 | 43.5 | 57.9 | 0.00 | 0.03 | 0.00 | 1 | 1015.3 |
| 20260503235336 | 13 | 152 | 43.5 | 57.9 | 0.00 | 0.03 | 0.00 | 1 | 1015.4 |
| 20260503235234 | 13 | 152 | 41.8 | 57.9 | 0.00 | 0.03 | 0.00 | 1 | 1015.4 |
| 20260503235136 | 13 | 154 | 41.8 | 57.9 | 0.00 | 0.03 | 0.00 | 1 | 1015.4 |
| 20260503235028 | 13 | 156 | 43.5 | 57.9 | 0.00 | 0.03 | 0.00 | 1 | 1015.4 |
| 20260503234930 | 13 | 146 | 43.5 | 57.9 | 0.00 | 0.03 | 0.00 | 1 | 1015.3 |
| 20260503234829 | 13 | 152 | 41.8 | 57.9 | 0.00 | 0.03 | 0.00 | 1 | 1015.4 |
| 20260503234730 | 13 | 148 | 41.8 | 56.3 | 0.00 | 0.03 | 0.00 | 1 | 1015.2 |
| 20260503234629 | 13 | 150 | 41.8 | 54.7 | 0.00 | 0.03 | 0.00 | 1 | 1015.3 |
| 20260503234524 | 13 | 151 | 41.8 | 54.7 | 0.00 | 0.03 | 0.00 | 1 | 1015.3 |
| 20260503234423 | 13 | 150 | 41.8 | 54.7 | 0.00 | 0.03 | 0.00 | 1 | 1015.2 |
| 20260503234323 | 13 | 152 | 43.5 | 57.9 | 0.00 | 0.03 | 0.00 | 1 | 1015.2 |
| 20260503234222 | 13 | 154 | 43.5 | 57.9 | 0.00 | 0.03 | 0.00 | 1 | 1015.3 |
| 20260503234123 | 13 | 156 | 45.1 | 57.9 | 0.00 | 0.03 | 0.00 | 1 | 1015.2 |
| 20260503234019 | 13 | 148 | 45.1 | 59.5 | 0.00 | 0.03 | 0.00 | 1 | 1015.2 |
| 20260503233918 | 13 | 152 | 45.1 | 59.5 | 0.00 | 0.03 | 0.00 | 1 | 1015.3 |
| 20260503233818 | 13 | 150 | 45.1 | 59.5 | 0.00 | 0.03 | 0.00 | 1 | 1015.3 |
| 20260503233717 | 13 | 150 | 45.1 | 59.5 | 0.00 | 0.03 | 0.00 | 1 | 1015.3 |
| 20260503233618 | 13 | 151 | 45.1 | 59.5 | 0.00 | 0.03 | 0.00 | 1 | 1015.3 |
| 20260503233518 | 13 | 153 | 45.1 | 59.5 | 0.00 | 0.03 | 0.00 | 1 | 1015.2 |
| 20260503233411 | 13 | 152 | 45.1 | 59.5 | 0.00 | 0.03 | 0.00 | 1 | 1015.3 |
| 20260503233312 | 13 | 152 | 45.1 | 59.5 | 0.00 | 0.03 | 0.00 | 1 | 1015.3 |
| 20260503233212 | 13 | 150 | 45.1 | 59.5 | 0.00 | 0.03 | 0.00 | 1 | 1015.2 |
| 20260503233112 | 13 | 148 | 45.1 | 59.5 | 0.00 | 0.03 | 0.00 | 1 | 1015.3 |
| 20260503233005 | 13 | 152 | 45.1 | 59.5 | 0.00 | 0.03 | 0.00 | 1 | 1015.3 |
| 20260503232904 | 13 | 152 | 45.1 | 59.5 | 0.00 | 0.03 | 0.00 | 1 | 1015.3 |
| 20260503232806 | 13 | 149 | 46.7 | 59.5 | 0.00 | 0.03 | 0.00 | 1 | 1015.2 |
| 20260503232704 | 13 | 151 | 46.7 | 59.5 | 0.00 | 0.03 | 0.00 | 1 | 1015.3 |
| 20260503232605 | 13 | 148 | 46.7 | 59.5 | 0.00 | 0.03 | 0.00 | 1 | 1015.3 |
| 20260503232505 | 13 | 145 | 46.7 | 59.5 | 0.00 | 0.03 | 0.00 | 1 | 1015.2 |
| 20260503232405 | 13 | 152 | 46.7 | 59.5 | 0.00 | 0.03 | 0.00 | 1 | 1015.3 |
| 20260503232306 | 13 | 152 | 45.1 | 59.5 | 0.00 | 0.03 | 0.00 | 1 | 1015.2 |
| 20260503232204 | 13 | 148 | 45.1 | 62.8 | 0.00 | 0.03 | 0.00 | 1 | 1015.3 |
| 20260503232105 | 13 | 150 | 45.1 | 62.8 | 0.00 | 0.03 | 0.00 | 1 | 1015.3 |
| 20260503232004 | 13 | 153 | 45.1 | 62.8 | 0.00 | 0.03 | 0.00 | 1 | 1015.3 |
| 20260503231904 | 13 | 154 | 43.5 | 62.8 | 0.00 | 0.03 | 0.00 | 1 | 1015.2 |
| 20260503231805 | 13 | 155 | 43.5 | 62.8 | 0.00 | 0.03 | 0.00 | 1 | 1015.3 |
| 20260503231704 | 13 | 151 | 45.1 | 62.8 | 0.00 | 0.03 | 0.00 | 1 | 1015.3 |
| 20260503231604 | 13 | 153 | 45.1 | 62.8 | 0.00 | 0.03 | 0.00 | 1 | 1015.3 |
| 20260503231505 | 13 | 151 | 45.1 | 62.8 | 0.00 | 0.03 | 0.00 | 1 | 1015.3 |
| 20260503231406 | 13 | 147 | 45.1 | 62.8 | 0.00 | 0.03 | 0.00 | 1 | 1015.2 |
| 20260503231300 | 13 | 146 | 46.7 | 62.8 | 0.00 | 0.03 | 0.00 | 1 | 1015.2 |
| 20260503231202 | 13 | 150 | 46.7 | 62.8 | 0.00 | 0.03 | 0.00 | 1 | 1015.1 |
| 20260503231102 | 13 | 152 | 45.1 | 62.8 | 0.00 | 0.03 | 0.00 | 1 | 1015.2 |
| 20260503231002 | 13 | 154 | 46.7 | 61.2 | 0.00 | 0.03 | 0.00 | 1 | 1015.2 |
| 20260503230900 | 13 | 148 | 46.7 | 61.2 | 0.00 | 0.03 | 0.00 | 1 | 1015.2 |
| 20260503230801 | 13 | 154 | 46.7 | 61.2 | 0.00 | 0.03 | 0.00 | 1 | 1015.2 |
| 20260503230701 | 13 | 152 | 46.7 | 67.6 | 0.00 | 0.03 | 0.00 | 1 | 1015.2 |
| 20260503230602 | 13 | 146 | 46.7 | 67.6 | 0.00 | 0.03 | 0.00 | 1 | 1015.3 |
| 20260503230501 | 13 | 152 | 46.7 | 67.6 | 0.00 | 0.03 | 0.00 | 1 | 1015.3 |
| 20260503230401 | 13 | 146 | 46.7 | 67.6 | 0.00 | 0.03 | 0.00 | 1 | 1015.2 |
| 20260503230300 | 13 | 151 | 46.7 | 67.6 | 0.00 | 0.03 | 0.00 | 1 | 1015.3 |
| 20260503230200 | 13 | 154 | 46.7 | 67.6 | 0.00 | 0.03 | 0.00 | 1 | 1015.2 |
| 20260503230000 | 13 | 155 | 49.9 | 67.6 | 0.00 | 0.03 | 0.00 | 1 | 1015.3 |
| 20260503225902 | 13 | 150 | 49.9 | 67.6 | 0.00 | 0.03 | 0.00 | 1 | 1015.3 |
| 20260503225800 | 13 | 152 | 49.9 | 67.6 | 0.00 | 0.03 | 0.00 | 1 | 1015.2 |
| 20260503225700 | 13 | 149 | 49.9 | 67.6 | 0.00 | 0.03 | 0.00 | 1 | 1015.3 |
| 20260503225601 | 13 | 151 | 51.5 | 67.6 | 0.00 | 0.03 | 0.00 | 1 | 1015.3 |
| 20260503225502 | 13 | 148 | 49.9 | 67.6 | 0.00 | 0.03 | 0.00 | 1 | 1015.3 |
| 20260503225356 | 13 | 148 | 49.9 | 67.6 | 0.00 | 0.03 | 0.00 | 1 | 1015.2 |
| 20260503225257 | 13 | 147 | 49.9 | 67.6 | 0.00 | 0.03 | 0.00 | 1 | 1015.3 |
| 20260503225157 | 13 | 150 | 49.9 | 67.6 | 0.00 | 0.03 | 0.00 | 1 | 1015.3 |
| 20260503225056 | 13 | 148 | 49.9 | 67.6 | 0.00 | 0.03 | 0.00 | 1 | 1015.2 |
| 20260503224956 | 13 | 147 | 49.9 | 67.6 | 0.00 | 0.03 | 0.00 | 1 | 1015.4 |
| 20260503224856 | 13 | 150 | 48.3 | 67.6 | 0.00 | 0.03 | 0.00 | 1 | 1015.3 |
| 20260503224756 | 13 | 151 | 49.9 | 67.6 | 0.00 | 0.03 | 0.00 | 1 | 1015.4 |
| 20260503224656 | 13 | 148 | 49.9 | 66.0 | 0.00 | 0.03 | 0.00 | 1 | 1015.3 |
| 20260503224556 | 13 | 146 | 49.9 | 66.0 | 0.00 | 0.03 | 0.00 | 1 | 1015.3 |
| 20260503224457 | 13 | 149 | 49.9 | 66.0 | 0.00 | 0.03 | 0.00 | 1 | 1015.3 |
| 20260503224356 | 13 | 149 | 49.9 | 66.0 | 0.00 | 0.03 | 0.00 | 1 | 1015.3 |
| 20260503224256 | 13 | 149 | 49.9 | 66.0 | 0.00 | 0.03 | 0.00 | 1 | 1015.2 |
| 20260503224157 | 13 | 151 | 48.3 | 66.0 | 0.00 | 0.03 | 0.00 | 1 | 1015.3 |
| 20260503224057 | 13 | 148 | 48.3 | 66.0 | 0.00 | 0.03 | 0.00 | 1 | 1015.3 |
| 20260503223956 | 13 | 150 | 48.3 | 66.0 | 0.00 | 0.03 | 0.00 | 1 | 1015.3 |
| 20260503223856 | 13 | 160 | 48.3 | 66.0 | 0.00 | 0.03 | 0.00 | 1 | 1015.2 |
| 20260503223756 | 13 | 146 | 46.7 | 66.0 | 0.00 | 0.03 | 0.00 | 1 | 1015.3 |
| 20260503223656 | 13 | 148 | 46.7 | 57.9 | 0.00 | 0.03 | 0.00 | 1 | 1015.3 |
| 20260503223558 | 13 | 146 | 46.7 | 57.9 | 0.00 | 0.03 | 0.00 | 1 | 1015.3 |
| 20260503223452 | 13 | 147 | 46.7 | 61.2 | 0.00 | 0.03 | 0.00 | 1 | 1015.3 |
| 20260503223352 | 13 | 146 | 46.7 | 61.2 | 0.00 | 0.03 | 0.00 | 1 | 1015.3 |
| 20260503223253 | 13 | 152 | 48.3 | 61.2 | 0.00 | 0.03 | 0.00 | 1 | 1015.3 |
| 20260503223152 | 13 | 150 | 48.3 | 62.8 | 0.00 | 0.03 | 0.00 | 1 | 1015.2 |
| 20260503223052 | 13 | 148 | 48.3 | 62.8 | 0.00 | 0.03 | 0.00 | 1 | 1015.3 |
| 20260503222952 | 13 | 150 | 48.3 | 62.8 | 0.00 | 0.03 | 0.00 | 1 | 1015.2 |
| 20260503222854 | 13 | 151 | 49.9 | 62.8 | 0.00 | 0.03 | 0.00 | 1 | 1015.3 |
| 20260503222754 | 13 | 148 | 49.9 | 66.0 | 0.00 | 0.03 | 0.00 | 1 | 1015.3 |
| 20260503222651 | 13 | 151 | 49.9 | 66.0 | 0.00 | 0.03 | 0.00 | 1 | 1015.2 |
| 20260503222552 | 13 | 147 | 49.9 | 66.0 | 0.00 | 0.03 | 0.00 | 1 | 1015.2 |
| 20260503222452 | 13 | 149 | 49.9 | 66.0 | 0.00 | 0.03 | 0.00 | 1 | 1015.1 |
| 20260503222352 | 13 | 148 | 49.9 | 66.0 | 0.00 | 0.03 | 0.00 | 1 | 1015.3 |
| 20260503222252 | 13 | 156 | 49.9 | 66.0 | 0.00 | 0.03 | 0.00 | 1 | 1015.3 |
| 20260503222152 | 13 | 148 | 49.9 | 66.0 | 0.00 | 0.03 | 0.00 | 1 | 1015.2 |
| 20260503222052 | 13 | 149 | 49.9 | 66.0 | 0.00 | 0.03 | 0.00 | 1 | 1015.3 |
| 20260503221952 | 13 | 147 | 48.3 | 66.0 | 0.00 | 0.03 | 0.00 | 1 | 1015.1 |
| 20260503221853 | 13 | 147 | 48.3 | 66.0 | 0.00 | 0.03 | 0.00 | 1 | 1015.2 |
| 20260503221754 | 13 | 149 | 49.9 | 61.2 | 0.00 | 0.03 | 0.00 | 1 | 1015.2 |
| 20260503221653 | 13 | 148 | 49.9 | 61.2 | 0.00 | 0.03 | 0.00 | 1 | 1015.1 |
| 20260503221548 | 13 | 145 | 49.9 | 62.8 | 0.00 | 0.03 | 0.00 | 1 | 1015.1 |
| 20260503221449 | 13 | 145 | 51.5 | 62.8 | 0.00 | 0.03 | 0.00 | 1 | 1015.1 |
| 20260503221350 | 13 | 148 | 49.9 | 62.8 | 0.00 | 0.03 | 0.00 | 1 | 1015.1 |
| 20260503221248 | 13 | 146 | 48.3 | 62.8 | 0.00 | 0.03 | 0.00 | 1 | 1015.0 |
| 20260503221149 | 13 | 150 | 48.3 | 62.8 | 0.00 | 0.03 | 0.00 | 1 | 1015.1 |
| 20260503221048 | 13 | 150 | 48.3 | 62.8 | 0.00 | 0.03 | 0.00 | 1 | 1015.1 |
| 20260503220949 | 13 | 154 | 48.3 | 62.8 | 0.00 | 0.03 | 0.00 | 1 | 1015.1 |
| 20260503220849 | 13 | 148 | 48.3 | 62.8 | 0.00 | 0.03 | 0.00 | 1 | 1015.1 |
| 20260503220748 | 13 | 146 | 48.3 | 62.8 | 0.00 | 0.03 | 0.00 | 1 | 1015.1 |
| 20260503220649 | 13 | 151 | 46.7 | 62.8 | 0.00 | 0.03 | 0.00 | 1 | 1015.0 |
| 20260503220548 | 13 | 150 | 46.7 | 66.0 | 0.00 | 0.03 | 0.00 | 1 | 1015.0 |
| 20260503220448 | 13 | 148 | 46.7 | 66.0 | 0.00 | 0.03 | 0.00 | 1 | 1015.0 |
| 20260503220349 | 14 | 148 | 48.3 | 66.0 | 0.00 | 0.03 | 0.00 | 1 | 1015.0 |
| 20260503220249 | 13 | 151 | 49.9 | 66.0 | 0.00 | 0.03 | 0.00 | 1 | 1015.0 |
| 20260503220150 | 14 | 151 | 49.9 | 66.0 | 0.00 | 0.03 | 0.00 | 1 | 1015.1 |
| 20260503220048 | 14 | 150 | 49.9 | 66.0 | 0.00 | 0.03 | 0.00 | 1 | 1015.0 |
| 20260503215948 | 14 | 150 | 51.5 | 66.0 | 0.00 | 0.03 | 0.00 | 1 | 1015.0 |
| 20260503215850 | 14 | 150 | 51.5 | 66.0 | 0.00 | 0.03 | 0.00 | 1 | 1015.0 |
| 20260503215750 | 13 | 149 | 51.5 | 66.0 | 0.00 | 0.03 | 0.00 | 1 | 1015.0 |
| 20260503215644 | 14 | 151 | 53.1 | 66.0 | 0.00 | 0.03 | 0.00 | 1 | 1015.0 |
| 20260503215544 | 14 | 147 | 53.1 | 66.0 | 0.00 | 0.03 | 0.00 | 1 | 1015.0 |
| 20260503215447 | 14 | 151 | 51.5 | 66.0 | 0.00 | 0.03 | 0.00 | 1 | 1015.0 |
| 20260503215346 | 14 | 151 | 51.5 | 62.8 | 0.00 | 0.03 | 0.00 | 1 | 1015.0 |
| 20260503215245 | 14 | 146 | 49.9 | 62.8 | 0.00 | 0.03 | 0.00 | 1 | 1014.9 |
| 20260503215145 | 14 | 146 | 49.9 | 62.8 | 0.00 | 0.03 | 0.00 | 1 | 1014.9 |
| 20260503215045 | 14 | 149 | 49.9 | 62.8 | 0.00 | 0.03 | 0.00 | 1 | 1014.9 |
| 20260503214944 | 14 | 146 | 49.9 | 62.8 | 0.00 | 0.03 | 0.00 | 1 | 1015.0 |
| 20260503214844 | 13 | 146 | 49.9 | 62.8 | 0.00 | 0.03 | 0.00 | 1 | 1014.9 |
| 20260503214744 | 13 | 147 | 48.3 | 62.8 | 0.00 | 0.03 | 0.00 | 1 | 1014.9 |
| 20260503214644 | 14 | 150 | 48.3 | 59.5 | 0.00 | 0.03 | 0.00 | 1 | 1014.9 |
| 20260503214545 | 14 | 148 | 48.3 | 59.5 | 0.00 | 0.03 | 0.00 | 1 | 1015.0 |
| 20260503214445 | 14 | 151 | 48.3 | 59.5 | 0.00 | 0.03 | 0.00 | 1 | 1014.9 |
| 20260503214348 | 14 | 149 | 49.9 | 61.2 | 0.00 | 0.03 | 0.00 | 1 | 1014.9 |
| 20260503214244 | 13 | 148 | 49.9 | 61.2 | 0.00 | 0.03 | 0.00 | 1 | 1015.0 |
| 20260503214144 | 13 | 148 | 49.9 | 61.2 | 0.00 | 0.03 | 0.00 | 1 | 1014.8 |
| 20260503214044 | 14 | 145 | 49.9 | 61.2 | 0.00 | 0.03 | 0.00 | 1 | 1014.9 |
| 20260503213944 | 14 | 148 | 49.9 | 61.2 | 0.00 | 0.03 | 0.00 | 1 | 1014.9 |
| 20260503213845 | 13 | 150 | 49.9 | 61.2 | 0.00 | 0.03 | 0.00 | 1 | 1014.9 |
| 20260503213740 | 14 | 148 | 49.9 | 61.2 | 0.00 | 0.03 | 0.00 | 1 | 1014.9 |
| 20260503213640 | 13 | 148 | 49.9 | 61.2 | 0.00 | 0.03 | 0.00 | 1 | 1015.0 |
| 20260503213542 | 13 | 149 | 48.3 | 61.2 | 0.00 | 0.03 | 0.00 | 1 | 1015.0 |
| 20260503213441 | 13 | 149 | 48.3 | 61.2 | 0.00 | 0.03 | 0.00 | 1 | 1014.9 |
| 20260503213340 | 13 | 149 | 48.3 | 61.2 | 0.00 | 0.03 | 0.00 | 1 | 1014.9 |
| 20260503213241 | 13 | 150 | 48.3 | 61.2 | 0.00 | 0.03 | 0.00 | 1 | 1014.9 |
| 20260503213141 | 13 | 148 | 48.3 | 61.2 | 0.00 | 0.03 | 0.00 | 1 | 1015.0 |
| 20260503213042 | 13 | 152 | 48.3 | 61.2 | 0.00 | 0.03 | 0.00 | 1 | 1014.9 |
| 20260503212941 | 13 | 147 | 48.3 | 61.2 | 0.00 | 0.03 | 0.00 | 1 | 1014.9 |
| 20260503212840 | 13 | 148 | 48.3 | 61.2 | 0.00 | 0.03 | 0.00 | 1 | 1015.0 |
| 20260503212741 | 13 | 148 | 49.9 | 59.5 | 0.00 | 0.03 | 0.00 | 1 | 1014.9 |
| 20260503212640 | 13 | 149 | 49.9 | 59.5 | 0.00 | 0.03 | 0.00 | 1 | 1015.0 |
| 20260503212540 | 13 | 148 | 49.9 | 59.5 | 0.00 | 0.03 | 0.00 | 1 | 1014.9 |
| 20260503212440 | 13 | 150 | 49.9 | 59.5 | 0.00 | 0.03 | 0.00 | 1 | 1014.8 |
| 20260503212340 | 13 | 152 | 49.9 | 59.5 | 0.00 | 0.03 | 0.00 | 1 | 1014.9 |
| 20260503212240 | 13 | 146 | 49.9 | 59.5 | 0.00 | 0.03 | 0.00 | 1 | 1014.9 |
| 20260503212154 | 13 | 148 | 51.5 | 64.4 | 0.00 | 0.03 | 0.00 | 1 | 1014.8 |
| 20260503212146 | 13 | 149 | 49.9 | 59.5 | 0.00 | 0.03 | 0.00 | 1 | 1014.9 |
| 20260503211942 | 13 | 148 | 53.1 | 69.2 | 0.00 | 0.03 | 0.00 | 1 | 1014.9 |
| 20260503211837 | 13 | 150 | 53.1 | 70.8 | 0.00 | 0.03 | 0.00 | 1 | 1014.9 |
| 20260503211737 | 13 | 150 | 54.7 | 70.8 | 0.00 | 0.03 | 0.00 | 1 | 1014.9 |
| 20260503211636 | 12 | 147 | 54.7 | 70.8 | 0.00 | 0.03 | 0.00 | 1 | 1014.8 |
| 20260503211547 | 12 | 148 | 53.1 | 70.8 | 0.00 | 0.03 | 0.00 | 1 | 1015.0 |
| 20260503211434 | 12 | 149 | 53.1 | 70.8 | 0.00 | 0.03 | 0.00 | 1 | 1015.0 |
| 20260503211333 | 12 | 149 | 53.1 | 70.8 | 0.00 | 0.03 | 0.00 | 1 | 1014.9 |
| 20260503211232 | 12 | 148 | 53.1 | 70.8 | 0.00 | 0.03 | 0.00 | 1 | 1014.9 |
| 20260503211132 | 13 | 149 | 51.5 | 70.8 | 0.00 | 0.03 | 0.00 | 1 | 1014.9 |
| 20260503211034 | 13 | 149 | 51.5 | 70.8 | 0.00 | 0.03 | 0.00 | 1 | 1014.9 |
| 20260503210932 | 13 | 147 | 49.9 | 70.8 | 0.00 | 0.03 | 0.00 | 1 | 1014.9 |
| 20260503210832 | 13 | 146 | 48.3 | 70.8 | 0.03 | 0.03 | 0.00 | 1 | 1014.9 |
| 20260503210734 | 13 | 148 | 46.7 | 70.8 | 0.03 | 0.03 | 0.00 | 1 | 1015.0 |
| 20260503210632 | 13 | 150 | 48.3 | 67.6 | 0.03 | 0.03 | 0.00 | 1 | 1014.9 |
| 20260503210532 | 13 | 152 | 49.9 | 67.6 | 0.03 | 0.03 | 0.00 | 1 | 1014.8 |
| 20260503210433 | 14 | 152 | 51.5 | 67.6 | 0.03 | 0.03 | 0.00 | 1 | 1014.9 |
| 20260503210332 | 13 | 147 | 51.5 | 67.6 | 0.03 | 0.03 | 0.00 | 1 | 1014.9 |
| 20260503210232 | 13 | 148 | 51.5 | 67.6 | 0.03 | 0.03 | 0.00 | 1 | 1014.9 |
| 20260503210134 | 13 | 148 | 51.5 | 67.6 | 0.03 | 0.03 | 0.00 | 1 | 1014.8 |
| 20260503210030 | 13 | 147 | 53.1 | 67.6 | 0.03 | 0.03 | 0.00 | 1 | 1014.7 |
| 20260503205930 | 13 | 149 | 53.1 | 67.6 | 0.03 | 0.03 | 0.03 | 1 | 1014.8 |
| 20260503205829 | 13 | 145 | 53.1 | 67.6 | 0.03 | 0.03 | 0.03 | 1 | 1014.9 |
| 20260503205731 | 13 | 147 | 53.1 | 67.6 | 0.03 | 0.03 | 0.03 | 1 | 1014.8 |
| 20260503205625 | 13 | 146 | 54.7 | 67.6 | 0.03 | 0.03 | 0.03 | 1 | 1014.8 |
| 20260503205526 | 13 | 152 | 54.7 | 67.6 | 0.03 | 0.03 | 0.03 | 1 | 1014.7 |
| 20260503205427 | 13 | 147 | 54.7 | 67.6 | 0.03 | 0.03 | 0.03 | 1 | 1014.8 |
| 20260503205326 | 13 | 148 | 53.1 | 67.6 | 0.03 | 0.03 | 0.03 | 1 | 1014.7 |
| 20260503205227 | 13 | 150 | 53.1 | 64.4 | 0.03 | 0.03 | 0.03 | 1 | 1014.8 |
| 20260503205140 | 13 | 148 | 51.5 | 64.4 | 0.03 | 0.03 | 0.03 | 1 | 1014.7 |
| 20260503205135 | 13 | 147 | 51.5 | 64.4 | 0.03 | 0.03 | 0.03 | 1 | 1014.8 |
| 20260503205128 | 13 | 146 | 53.1 | 64.4 | 0.03 | 0.03 | 0.03 | 1 | 1014.7 |
| 20260503205122 | 13 | 148 | 51.5 | 64.4 | 0.03 | 0.03 | 0.03 | 1 | 1014.7 |
| 20260503205117 | 13 | 146 | 51.5 | 64.4 | 0.03 | 0.03 | 0.03 | 1 | 1014.7 |
| 20260503204624 | 13 | 150 | 51.5 | 70.8 | 0.03 | 0.03 | 0.03 | 1 | 1014.7 |
| 20260503204526 | 14 | 144 | 51.5 | 70.8 | 0.03 | 0.03 | 0.03 | 1 | 1014.7 |
| 20260503204427 | 14 | 145 | 51.5 | 70.8 | 0.03 | 0.03 | 0.03 | 1 | 1014.7 |
| 20260503204326 | 14 | 147 | 51.5 | 70.8 | 0.03 | 0.03 | 0.03 | 1 | 1014.6 |
| 20260503204225 | 13 | 148 | 51.5 | 70.8 | 0.03 | 0.03 | 0.03 | 1 | 1014.7 |
| 20260503204125 | 13 | 151 | 51.5 | 70.8 | 0.03 | 0.03 | 0.03 | 1 | 1014.6 |
| 20260503204026 | 13 | 148 | 53.1 | 70.8 | 0.03 | 0.03 | 0.03 | 1 | 1014.5 |
| 20260503203926 | 13 | 147 | 53.1 | 70.8 | 0.03 | 0.03 | 0.03 | 1 | 1014.6 |
| 20260503203827 | 13 | 150 | 53.1 | 70.8 | 0.03 | 0.03 | 0.03 | 1 | 1014.7 |
| 20260503203721 | 13 | 150 | 51.5 | 70.8 | 0.03 | 0.03 | 0.03 | 1 | 1014.6 |
| 20260503203623 | 13 | 147 | 49.9 | 69.2 | 0.03 | 0.03 | 0.03 | 1 | 1014.7 |
| 20260503203522 | 13 | 148 | 49.9 | 67.6 | 0.03 | 0.03 | 0.03 | 1 | 1014.6 |
| 20260503203421 | 13 | 146 | 49.9 | 67.6 | 0.03 | 0.03 | 0.03 | 1 | 1014.6 |
| 20260503203321 | 13 | 146 | 48.3 | 67.6 | 0.03 | 0.03 | 0.03 | 1 | 1014.6 |
| 20260503203221 | 13 | 144 | 48.3 | 67.6 | 0.03 | 0.03 | 0.03 | 1 | 1014.7 |
| 20260503203121 | 13 | 146 | 46.7 | 67.6 | 0.03 | 0.03 | 0.03 | 1 | 1014.6 |
| 20260503203021 | 13 | 147 | 46.7 | 61.2 | 0.03 | 0.03 | 0.03 | 1 | 1014.6 |
| 20260503202921 | 13 | 148 | 45.1 | 59.5 | 0.03 | 0.03 | 0.03 | 1 | 1014.5 |
| 20260503202821 | 13 | 148 | 45.1 | 59.5 | 0.03 | 0.03 | 0.03 | 1 | 1014.6 |
| 20260503202721 | 13 | 148 | 45.1 | 54.7 | 0.03 | 0.03 | 0.03 | 1 | 1014.5 |
| 20260503202621 | 13 | 148 | 45.1 | 54.7 | 0.03 | 0.03 | 0.03 | 1 | 1014.6 |
| 20260503202522 | 13 | 147 | 45.1 | 54.7 | 0.03 | 0.03 | 0.03 | 1 | 1014.7 |
| 20260503202421 | 13 | 146 | 45.1 | 54.7 | 0.03 | 0.03 | 0.03 | 1 | 1014.7 |
| 20260503202323 | 13 | 146 | 46.7 | 54.7 | 0.03 | 0.03 | 0.03 | 1 | 1014.6 |
| 20260503202221 | 13 | 142 | 46.7 | 57.9 | 0.03 | 0.03 | 0.03 | 1 | 1014.6 |
| 20260503202122 | 13 | 144 | 46.7 | 57.9 | 0.03 | 0.03 | 0.03 | 1 | 1014.7 |
| 20260503202022 | 13 | 144 | 46.7 | 57.9 | 0.03 | 0.03 | 0.03 | 1 | 1014.7 |
| 20260503201923 | 13 | 141 | 48.3 | 57.9 | 0.03 | 0.03 | 0.03 | 1 | 1014.7 |
| 20260503201817 | 13 | 145 | 48.3 | 57.9 | 0.03 | 0.03 | 0.03 | 1 | 1014.7 |
| 20260503201717 | 13 | 146 | 48.3 | 57.9 | 0.03 | 0.03 | 0.03 | 1 | 1014.8 |
| 20260503201617 | 12 | 143 | 48.3 | 57.9 | 0.03 | 0.03 | 0.03 | 1 | 1014.7 |
| 20260503201519 | 12 | 145 | 48.3 | 57.9 | 0.03 | 0.03 | 0.03 | 1 | 1014.7 |
| 20260503201417 | 12 | 146 | 49.9 | 59.5 | 0.03 | 0.03 | 0.03 | 1 | 1014.7 |
| 20260503201318 | 12 | 146 | 49.9 | 64.4 | 0.03 | 0.03 | 0.03 | 1 | 1014.7 |
| 20260503201218 | 12 | 146 | 49.9 | 66.0 | 0.03 | 0.03 | 0.03 | 1 | 1014.7 |
| 20260503201119 | 12 | 145 | 51.5 | 72.4 | 0.03 | 0.03 | 0.03 | 1 | 1014.7 |
| 20260503201019 | 12 | 148 | 53.1 | 74.0 | 0.03 | 0.03 | 0.03 | 1 | 1014.7 |
| 20260503200918 | 12 | 145 | 54.7 | 78.9 | 0.03 | 0.03 | 0.03 | 1 | 1014.7 |
| 20260503200817 | 12 | 146 | 56.3 | 78.9 | 0.00 | 0.00 | 0.00 | 1 | 1014.7 |
| 20260503200717 | 12 | 150 | 56.3 | 78.9 | 0.00 | 0.00 | 0.00 | 1 | 1014.7 |
| 20260503200618 | 12 | 148 | 56.3 | 78.9 | 0.00 | 0.00 | 0.00 | 1 | 1014.8 |
| 20260503200518 | 12 | 144 | 56.3 | 78.9 | 0.00 | 0.00 | 0.00 | 1 | 1014.9 |
| 20260503200417 | 12 | 144 | 56.3 | 78.9 | 0.00 | 0.00 | 0.00 | 1 | 1014.9 |
| 20260503200318 | 13 | 148 | 54.7 | 78.9 | 0.00 | 0.00 | 0.00 | 1 | 1014.8 |
| 20260503200217 | 13 | 148 | 54.7 | 78.9 | 0.00 | 0.00 | 0.00 | 1 | 1014.9 |
| 20260503200117 | 13 | 148 | 54.7 | 78.9 | 0.00 | 0.00 | 0.00 | 1 | 1014.8 |
| 20260503200019 | 13 | 148 | 53.1 | 78.9 | 0.00 | 0.00 | 0.00 | 1 | 1014.8 |
| 20260503195916 | 13 | 146 | 51.5 | 78.9 | 0.00 | 0.00 | 0.00 | 1 | 1014.6 |
| 20260503195813 | 14 | 148 | 51.5 | 74.0 | 0.00 | 0.00 | 0.00 | 1 | 1014.5 |
| 20260503195715 | 14 | 149 | 51.5 | 62.8 | 0.00 | 0.00 | 0.00 | 1 | 1014.6 |
| 20260503195614 | 14 | 150 | 51.5 | 62.8 | 0.00 | 0.00 | 0.00 | 1 | 1014.6 |
| 20260503195513 | 14 | 152 | 53.1 | 62.8 | 0.00 | 0.00 | 0.00 | 1 | 1014.6 |
| 20260503195413 | 14 | 146 | 53.1 | 66.0 | 0.00 | 0.00 | 0.00 | 1 | 1014.6 |
| 20260503195315 | 14 | 146 | 54.7 | 69.2 | 0.00 | 0.00 | 0.00 | 1 | 1014.6 |
| 20260503195214 | 14 | 148 | 54.7 | 69.2 | 0.00 | 0.00 | 0.00 | 1 | 1014.6 |
| 20260503195113 | 14 | 149 | 54.7 | 69.2 | 0.00 | 0.00 | 0.00 | 1 | 1014.6 |
| 20260503195013 | 14 | 148 | 54.7 | 69.2 | 0.00 | 0.00 | 0.00 | 1 | 1014.6 |
| 20260503194914 | 14 | 150 | 53.1 | 69.2 | 0.00 | 0.00 | 0.00 | 1 | 1014.6 |
| 20260503194813 | 14 | 152 | 53.1 | 69.2 | 0.00 | 0.00 | 0.00 | 1 | 1014.5 |
| 20260503194715 | 14 | 148 | 53.1 | 69.2 | 0.00 | 0.00 | 0.00 | 1 | 1014.5 |
| 20260503194613 | 14 | 147 | 51.5 | 69.2 | 0.00 | 0.00 | 0.00 | 1 | 1014.5 |
| 20260503194515 | 14 | 149 | 51.5 | 69.2 | 0.00 | 0.00 | 0.00 | 1 | 1014.6 |
| 20260503194413 | 14 | 150 | 51.5 | 69.2 | 0.00 | 0.00 | 0.00 | 1 | 1014.6 |
| 20260503194313 | 14 | 151 | 49.9 | 67.6 | 0.00 | 0.00 | 0.00 | 1 | 1014.5 |
| 20260503194213 | 14 | 146 | 49.9 | 66.0 | 0.00 | 0.00 | 0.00 | 1 | 1014.4 |
| 20260503194115 | 14 | 152 | 49.9 | 66.0 | 0.00 | 0.00 | 0.00 | 1 | 1014.6 |
| 20260503194009 | 14 | 149 | 51.5 | 64.4 | 0.00 | 0.00 | 0.00 | 1 | 1014.4 |
| 20260503193909 | 13 | 149 | 51.5 | 64.4 | 0.00 | 0.00 | 0.00 | 1 | 1014.6 |
| 20260503193811 | 13 | 150 | 51.5 | 64.4 | 0.00 | 0.00 | 0.00 | 1 | 1014.6 |
| 20260503193709 | 13 | 148 | 51.5 | 64.4 | 0.00 | 0.00 | 0.00 | 1 | 1014.5 |
| 20260503193609 | 13 | 149 | 53.1 | 64.4 | 0.00 | 0.00 | 0.00 | 1 | 1014.6 |
| 20260503193509 | 13 | 150 | 51.5 | 64.4 | 0.00 | 0.00 | 0.00 | 1 | 1014.5 |
| 20260503193409 | 13 | 147 | 51.5 | 64.4 | 0.00 | 0.00 | 0.00 | 1 | 1014.4 |
| 20260503193309 | 13 | 151 | 51.5 | 64.4 | 0.00 | 0.00 | 0.00 | 1 | 1014.5 |
| 20260503193211 | 13 | 146 | 49.9 | 64.4 | 0.00 | 0.00 | 0.00 | 1 | 1014.5 |
| 20260503193108 | 13 | 148 | 49.9 | 59.5 | 0.00 | 0.00 | 0.00 | 1 | 1014.5 |
| 20260503193008 | 13 | 150 | 48.3 | 59.5 | 0.00 | 0.00 | 0.00 | 1 | 1014.5 |
| 20260503192909 | 13 | 149 | 48.3 | 59.5 | 0.00 | 0.00 | 0.00 | 1 | 1014.5 |
| 20260503192810 | 13 | 148 | 46.7 | 57.9 | 0.00 | 0.00 | 0.00 | 1 | 1014.5 |
| 20260503192714 | 13 | 147 | 46.7 | 62.8 | 0.00 | 0.00 | 0.00 | 1 | 1014.6 |
| 20260503192611 | 13 | 149 | 46.7 | 62.8 | 0.00 | 0.00 | 0.00 | 1 | 1014.6 |
| 20260503192509 | 13 | 148 | 46.7 | 62.8 | 0.00 | 0.00 | 0.00 | 1 | 1014.6 |
| 20260503192408 | 13 | 148 | 46.7 | 62.8 | 0.00 | 0.00 | 0.00 | 1 | 1014.6 |
| 20260503192309 | 13 | 146 | 46.7 | 62.8 | 0.00 | 0.00 | 0.00 | 1 | 1014.5 |
| 20260503192210 | 13 | 147 | 48.3 | 62.8 | 0.00 | 0.00 | 0.00 | 1 | 1014.6 |
| 20260503192107 | 13 | 147 | 48.3 | 62.8 | 0.00 | 0.00 | 0.00 | 1 | 1014.5 |
| 20260503192101 | 13 | 146 | 49.9 | 62.8 | 0.00 | 0.00 | 0.00 | 1 | 1014.5 |
| 20260503192050 | 13 | 148 | 48.3 | 62.8 | 0.00 | 0.00 | 0.00 | 1 | 1014.5 |
| 20260503192040 | 13 | 141 | 48.3 | 62.8 | 0.00 | 0.00 | 0.00 | 1 | 1014.5 |
| 20260503191705 | 13 | 146 | 49.9 | 62.8 | 0.00 | 0.00 | 0.00 | 1 | 1014.4 |
| 20260503191606 | 13 | 143 | 49.9 | 64.4 | 0.00 | 0.00 | 0.00 | 1 | 1014.5 |
| 20260503191506 | 12 | 146 | 51.5 | 67.6 | 0.00 | 0.00 | 0.00 | 1 | 1014.4 |
| 20260503191406 | 12 | 147 | 51.5 | 67.6 | 0.00 | 0.00 | 0.00 | 1 | 1014.3 |
| 20260503191305 | 12 | 148 | 53.1 | 70.8 | 0.00 | 0.00 | 0.00 | 1 | 1014.5 |
| 20260503191204 | 12 | 145 | 53.1 | 70.8 | 0.00 | 0.00 | 0.00 | 1 | 1014.5 |
| 20260503191105 | 12 | 142 | 54.7 | 70.8 | 0.00 | 0.00 | 0.00 | 1 | 1014.4 |
| 20260503191004 | 12 | 149 | 56.3 | 70.8 | 0.00 | 0.00 | 0.00 | 1 | 1014.3 |
| 20260503190907 | 12 | 148 | 54.7 | 72.4 | 0.00 | 0.00 | 0.00 | 1 | 1014.4 |
| 20260503190806 | 12 | 145 | 56.3 | 78.9 | 0.00 | 0.00 | 0.00 | 1 | 1014.4 |
| 20260503190705 | 12 | 146 | 56.3 | 78.9 | 0.00 | 0.00 | 0.00 | 1 | 1014.4 |
| 20260503190606 | 12 | 146 | 57.9 | 78.9 | 0.00 | 0.00 | 0.00 | 1 | 1014.3 |
| 20260503190505 | 12 | 146 | 57.9 | 78.9 | 0.00 | 0.00 | 0.00 | 1 | 1014.3 |
| 20260503190405 | 12 | 147 | 57.9 | 78.9 | 0.00 | 0.00 | 0.00 | 1 | 1014.4 |
| 20260503190306 | 12 | 146 | 57.9 | 78.9 | 0.00 | 0.00 | 0.00 | 1 | 1014.5 |
| 20260503190206 | 12 | 151 | 56.3 | 78.9 | 0.00 | 0.00 | 0.00 | 1 | 1014.5 |
| 20260503190104 | 13 | 150 | 56.3 | 78.9 | 0.00 | 0.00 | 0.00 | 1 | 1014.4 |
| 20260503190004 | 13 | 144 | 56.3 | 78.9 | 0.00 | 0.00 | 0.00 | 1 | 1014.4 |
| 20260503185904 | 13 | 150 | 56.3 | 78.9 | 0.00 | 0.00 | 0.00 | 1 | 1014.4 |
| 20260503185803 | 13 | 148 | 54.7 | 69.2 | 0.00 | 0.00 | 0.00 | 1 | 1014.2 |
| 20260503185710 | 13 | 148 | 54.7 | 69.2 | 0.00 | 0.00 | 0.00 | 1 | 1014.3 |
| 20260503185603 | 13 | 152 | 54.7 | 69.2 | 0.00 | 0.00 | 0.00 | 1 | 1014.2 |
| 20260503185504 | 13 | 151 | 54.7 | 67.6 | 0.00 | 0.00 | 0.00 | 1 | 1014.1 |
| 20260503185403 | 13 | 147 | 53.1 | 67.6 | 0.00 | 0.00 | 0.00 | 1 | 1014.2 |
| 20260503185304 | 13 | 145 | 53.1 | 67.6 | 0.00 | 0.00 | 0.00 | 1 | 1014.2 |
| 20260503185203 | 13 | 146 | 53.1 | 67.6 | 0.00 | 0.00 | 0.00 | 1 | 1014.1 |
| 20260503185103 | 13 | 145 | 51.5 | 67.6 | 0.00 | 0.00 | 0.00 | 1 | 1014.0 |
| 20260503185002 | 13 | 150 | 51.5 | 67.6 | 0.00 | 0.00 | 0.00 | 1 | 1013.9 |
| 20260503184901 | 13 | 146 | 51.5 | 67.6 | 0.00 | 0.00 | 0.00 | 1 | 1014.0 |
| 20260503184802 | 13 | 149 | 53.1 | 67.6 | 0.00 | 0.00 | 0.00 | 1 | 1014.0 |
| 20260503184702 | 13 | 146 | 51.5 | 67.6 | 0.00 | 0.00 | 0.00 | 1 | 1014.0 |
| 20260503184602 | 12 | 148 | 49.9 | 66.0 | 0.00 | 0.00 | 0.00 | 1 | 1013.7 |
| 20260503184455 | 12 | 146 | 48.3 | 66.0 | 0.00 | 0.00 | 0.00 | 1 | 1013.9 |
| 20260503184353 | 12 | 150 | 48.3 | 66.0 | 0.00 | 0.00 | 0.00 | 1 | 1014.0 |
| 20260503184254 | 12 | 150 | 48.3 | 66.0 | 0.00 | 0.00 | 0.00 | 1 | 1013.9 |
| 20260503184154 | 12 | 150 | 48.3 | 66.0 | 0.00 | 0.00 | 0.00 | 1 | 1014.1 |
| 20260503184054 | 13 | 148 | 46.7 | 66.0 | 0.00 | 0.00 | 0.00 | 1 | 1014.1 |
| 20260503183951 | 13 | 147 | 46.7 | 66.0 | 0.00 | 0.00 | 0.00 | 1 | 1013.9 |
| 20260503183851 | 13 | 148 | 46.7 | 66.0 | 0.00 | 0.00 | 0.00 | 1 | 1013.9 |
| 20260503183749 | 13 | 152 | 46.7 | 66.0 | 0.00 | 0.00 | 0.00 | 1 | 1014.1 |
| 20260503183713 | 13 | 146 | 51.5 | 69.2 | 0.00 | 0.00 | 0.00 | 1 | 1013.9 |
| 20260503183707 | 13 | 150 | 51.5 | 69.2 | 0.00 | 0.00 | 0.00 | 1 | 1013.9 |
| 20260503183702 | 13 | 148 | 48.3 | 69.2 | 0.00 | 0.00 | 0.00 | 1 | 1013.9 |
| 20260503183655 | 13 | 152 | 48.3 | 61.2 | 0.00 | 0.00 | 0.00 | 1 | 1013.9 |
| 20260503183648 | 13 | 150 | 49.9 | 69.2 | 0.00 | 0.00 | 0.00 | 1 | 1014.0 |
| 20260503183145 | 13 | 152 | 53.1 | 69.2 | 0.00 | 0.00 | 0.00 | 1 | 1013.8 |
| 20260503183042 | 13 | 146 | 54.7 | 69.2 | 0.00 | 0.00 | 0.00 | 1 | 1013.9 |
| 20260503182939 | 13 | 154 | 54.7 | 69.2 | 0.00 | 0.00 | 0.00 | 1 | 1013.8 |
| 20260503182835 | 13 | 151 | 54.7 | 69.2 | 0.00 | 0.00 | 0.00 | 1 | 1013.7 |
| 20260503182737 | 13 | 148 | 54.7 | 69.2 | 0.00 | 0.00 | 0.00 | 1 | 1013.8 |
| 20260503182635 | 13 | 147 | 54.7 | 69.2 | 0.00 | 0.00 | 0.00 | 1 | 1013.8 |
| 20260503182536 | 13 | 146 | 54.7 | 69.2 | 0.00 | 0.00 | 0.00 | 1 | 1013.7 |
| 20260503182429 | 13 | 147 | 54.7 | 69.2 | 0.00 | 0.00 | 0.00 | 1 | 1013.7 |
| 20260503182329 | 13 | 144 | 53.1 | 69.2 | 0.00 | 0.00 | 0.00 | 1 | 1013.6 |
| 20260503182229 | 13 | 148 | 51.5 | 69.2 | 0.00 | 0.00 | 0.00 | 1 | 1013.6 |
| 20260503182131 | 13 | 148 | 49.9 | 69.2 | 0.00 | 0.00 | 0.00 | 1 | 1013.5 |
| 20260503182030 | 13 | 145 | 49.9 | 69.2 | 0.00 | 0.00 | 0.00 | 1 | 1013.5 |
| 20260503181924 | 13 | 146 | 49.9 | 69.2 | 0.00 | 0.00 | 0.00 | 1 | 1013.4 |
| 20260503181822 | 13 | 146 | 49.9 | 69.2 | 0.00 | 0.00 | 0.00 | 1 | 1013.5 |
| 20260503181724 | 13 | 148 | 49.9 | 69.2 | 0.00 | 0.00 | 0.00 | 1 | 1013.6 |
| 20260503181625 | 13 | 146 | 48.3 | 69.2 | 0.00 | 0.00 | 0.00 | 1 | 1013.5 |
| 20260503181524 | 13 | 147 | 48.3 | 66.0 | 0.00 | 0.00 | 0.00 | 1 | 1013.5 |
| 20260503181417 | 13 | 146 | 49.9 | 66.0 | 0.00 | 0.00 | 0.00 | 1 | 1013.5 |
| 20260503181317 | 13 | 150 | 49.9 | 66.0 | 0.00 | 0.00 | 0.00 | 1 | 1013.5 |
| 20260503181218 | 13 | 146 | 51.5 | 69.2 | 0.00 | 0.00 | 0.00 | 1 | 1013.6 |
| 20260503181119 | 13 | 145 | 53.1 | 69.2 | 0.00 | 0.00 | 0.00 | 1 | 1013.5 |
| 20260503180918 | 13 | 148 | 53.1 | 69.2 | 0.00 | 0.00 | 0.00 | 1 | 1013.5 |
| 20260503180816 | 13 | 146 | 53.1 | 69.2 | 0.00 | 0.00 | 0.00 | 1 | 1013.5 |
| 20260503180714 | 13 | 150 | 53.1 | 69.2 | 0.00 | 0.00 | 0.00 | 1 | 1013.5 |
| 20260503180613 | 13 | 146 | 53.1 | 69.2 | 0.00 | 0.00 | 0.00 | 1 | 1013.5 |
| 20260503180512 | 13 | 146 | 53.1 | 69.2 | 0.00 | 0.00 | 0.00 | 1 | 1013.5 |
| 20260503180409 | 13 | 148 | 54.7 | 69.2 | 0.00 | 0.00 | 0.00 | 1 | 1013.5 |
| 20260503180306 | 13 | 152 | 54.7 | 69.2 | 0.00 | 0.00 | 0.00 | 1 | 1013.5 |
| 20260503180207 | 13 | 150 | 53.1 | 64.4 | 0.00 | 0.00 | 0.00 | 1 | 1013.5 |
| 20260503180106 | 13 | 148 | 51.5 | 64.4 | 0.00 | 0.00 | 0.00 | 1 | 1013.6 |
| 20260503180005 | 13 | 148 | 51.5 | 64.4 | 0.00 | 0.00 | 0.00 | 1 | 1013.6 |
| 20260503175900 | 13 | 146 | 51.5 | 64.4 | 0.00 | 0.00 | 0.00 | 1 | 1013.6 |
| 20260503175758 | 13 | 148 | 53.1 | 64.4 | 0.00 | 0.00 | 0.00 | 1 | 1013.5 |
| 20260503175701 | 13 | 145 | 53.1 | 64.4 | 0.00 | 0.00 | 0.00 | 1 | 1013.4 |
| 20260503175559 | 13 | 147 | 53.1 | 64.4 | 0.00 | 0.00 | 0.00 | 1 | 1013.5 |
| 20260503175459 | 13 | 147 | 53.1 | 64.4 | 0.00 | 0.00 | 0.00 | 1 | 1013.5 |
| 20260503175355 | 13 | 149 | 53.1 | 64.4 | 0.00 | 0.00 | 0.00 | 1 | 1013.4 |
| 20260503175255 | 13 | 147 | 53.1 | 64.4 | 0.00 | 0.00 | 0.00 | 1 | 1013.5 |
| 20260503175154 | 12 | 147 | 54.7 | 69.2 | 0.00 | 0.00 | 0.00 | 1 | 1013.4 |
| 20260503175053 | 12 | 150 | 54.7 | 69.2 | 0.00 | 0.00 | 0.00 | 1 | 1013.5 |
| 20260503174954 | 12 | 150 | 56.3 | 69.2 | 0.00 | 0.00 | 0.00 | 1 | 1013.4 |
| 20260503174847 | 12 | 143 | 56.3 | 69.2 | 0.00 | 0.00 | 0.00 | 1 | 1013.5 |
| 20260503174748 | 12 | 148 | 56.3 | 69.2 | 0.00 | 0.00 | 0.00 | 1 | 1013.4 |
| 20260503174649 | 12 | 146 | 56.3 | 69.2 | 0.00 | 0.00 | 0.00 | 1 | 1013.4 |
| 20260503174547 | 12 | 146 | 56.3 | 69.2 | 0.00 | 0.00 | 0.00 | 1 | 1013.4 |
| 20260503174448 | 12 | 143 | 56.3 | 69.2 | 0.00 | 0.00 | 0.00 | 1 | 1013.5 |
| 20260503174343 | 12 | 146 | 56.3 | 69.2 | 0.00 | 0.00 | 0.00 | 1 | 1013.4 |
| 20260503174243 | 12 | 148 | 56.3 | 69.2 | 0.00 | 0.00 | 0.00 | 1 | 1013.5 |
| 20260503174141 | 12 | 146 | 56.3 | 69.2 | 0.00 | 0.00 | 0.00 | 1 | 1013.4 |
| 20260503174042 | 12 | 142 | 56.3 | 69.2 | 0.00 | 0.00 | 0.00 | 1 | 1013.4 |
| 20260503173940 | 12 | 146 | 56.3 | 72.4 | 0.00 | 0.00 | 0.00 | 1 | 1013.3 |
| 20260503173832 | 12 | 149 | 54.7 | 72.4 | 0.00 | 0.00 | 0.00 | 1 | 1013.5 |
| 20260503173731 | 12 | 147 | 56.3 | 72.4 | 0.00 | 0.00 | 0.00 | 1 | 1013.5 |
| 20260503173705 | 12 | 149 | 56.3 | 72.4 | 0.00 | 0.00 | 0.00 | 1 | 1013.5 |
| 20260503173700 | 12 | 148 | 56.3 | 72.4 | 0.00 | 0.00 | 0.00 | 1 | 1013.5 |
| 20260503173654 | 12 | 144 | 56.3 | 72.4 | 0.00 | 0.00 | 0.00 | 1 | 1013.5 |
| 20260503173648 | 12 | 148 | 56.3 | 72.4 | 0.00 | 0.00 | 0.00 | 1 | 1013.4 |
| 20260503173640 | 12 | 147 | 56.3 | 72.4 | 0.00 | 0.00 | 0.00 | 1 | 1013.5 |
| 20260503173127 | 13 | 144 | 54.7 | 72.4 | 0.00 | 0.00 | 0.00 | 1 | 1013.5 |
| 20260503173026 | 12 | 153 | 54.7 | 72.4 | 0.00 | 0.00 | 0.00 | 1 | 1013.5 |
| 20260503172927 | 13 | 147 | 54.7 | 69.2 | 0.00 | 0.00 | 0.00 | 1 | 1013.5 |
| 20260503172827 | 13 | 148 | 54.7 | 69.2 | 0.00 | 0.00 | 0.00 | 1 | 1013.5 |
| 20260503172726 | 13 | 147 | 53.1 | 69.2 | 0.00 | 0.00 | 0.00 | 1 | 1013.4 |
| 20260503172626 | 13 | 148 | 53.1 | 69.2 | 0.00 | 0.00 | 0.00 | 1 | 1013.4 |
| 20260503172523 | 13 | 148 | 51.5 | 69.2 | 0.00 | 0.00 | 0.00 | 1 | 1013.4 |
| 20260503172421 | 13 | 148 | 51.5 | 69.2 | 0.00 | 0.00 | 0.00 | 1 | 1013.4 |
| 20260503172322 | 13 | 148 | 49.9 | 69.2 | 0.00 | 0.00 | 0.00 | 1 | 1013.3 |
| 20260503172221 | 13 | 152 | 49.9 | 69.2 | 0.00 | 0.00 | 0.00 | 1 | 1013.3 |
| 20260503172122 | 13 | 152 | 49.9 | 69.2 | 0.00 | 0.00 | 0.00 | 1 | 1013.3 |
| 20260503172020 | 13 | 148 | 51.5 | 69.2 | 0.00 | 0.00 | 0.00 | 1 | 1013.4 |
| 20260503171922 | 13 | 147 | 51.5 | 69.2 | 0.00 | 0.00 | 0.00 | 1 | 1013.4 |
| 20260503171819 | 13 | 149 | 53.1 | 69.2 | 0.00 | 0.00 | 0.00 | 1 | 1013.3 |
| 20260503171719 | 13 | 150 | 53.1 | 69.2 | 0.00 | 0.00 | 0.00 | 1 | 1013.3 |
| 20260503171619 | 13 | 149 | 53.1 | 69.2 | 0.00 | 0.00 | 0.00 | 1 | 1013.3 |
| 20260503171519 | 13 | 148 | 54.7 | 74.0 | 0.00 | 0.00 | 0.00 | 1 | 1013.2 |
| 20260503171420 | 13 | 147 | 56.3 | 74.0 | 0.00 | 0.00 | 0.00 | 1 | 1013.3 |
| 20260503171320 | 13 | 146 | 57.9 | 74.0 | 0.00 | 0.00 | 0.00 | 1 | 1013.2 |
| 20260503171220 | 13 | 150 | 57.9 | 74.0 | 0.00 | 0.00 | 0.00 | 1 | 1013.2 |
| 20260503171115 | 13 | 150 | 57.9 | 74.0 | 0.00 | 0.00 | 0.00 | 1 | 1013.2 |
| 20260503171013 | 13 | 148 | 57.9 | 74.0 | 0.00 | 0.00 | 0.00 | 1 | 1013.1 |
| 20260503170912 | 13 | 150 | 56.3 | 74.0 | 0.00 | 0.00 | 0.00 | 1 | 1013.0 |
| 20260503170812 | 13 | 146 | 56.3 | 74.0 | 0.00 | 0.00 | 0.00 | 1 | 1013.2 |
| 20260503170714 | 13 | 147 | 56.3 | 74.0 | 0.00 | 0.00 | 0.00 | 1 | 1013.1 |
| 20260503170607 | 13 | 146 | 56.3 | 72.4 | 0.00 | 0.00 | 0.00 | 1 | 1013.0 |
| 20260503170509 | 13 | 145 | 54.7 | 72.4 | 0.00 | 0.00 | 0.00 | 1 | 1012.9 |
| 20260503170408 | 13 | 148 | 56.3 | 72.4 | 0.00 | 0.00 | 0.00 | 1 | 1013.0 |
| 20260503170308 | 13 | 147 | 54.7 | 72.4 | 0.00 | 0.00 | 0.00 | 1 | 1012.9 |
| 20260503170208 | 13 | 146 | 53.1 | 72.4 | 0.00 | 0.00 | 0.00 | 1 | 1012.9 |
| 20260503170105 | 13 | 148 | 53.1 | 72.4 | 0.00 | 0.00 | 0.00 | 1 | 1012.8 |
| 20260503160150 | 12 | 148 | 56.3 | 72.4 | 0.00 | 0.00 | 0.00 | 1 | 1012.8 |
| 20260503150952 | 12 | 142 | 54.7 | 67.6 | 0.00 | 0.00 | 0.00 | 1 | 1012.7 |
| 20260503150847 | 12 | 142 | 56.3 | 67.6 | 0.00 | 0.00 | 0.00 | 1 | 1012.7 |
| 20260503150747 | 12 | 137 | 56.3 | 67.6 | 0.00 | 0.00 | 0.00 | 1 | 1012.8 |
| 20260503150646 | 12 | 145 | 56.3 | 67.6 | 0.00 | 0.00 | 0.00 | 1 | 1012.8 |
| 20260503150545 | 12 | 145 | 56.3 | 67.6 | 0.00 | 0.00 | 0.00 | 1 | 1013.0 |
| 20260503150445 | 12 | 149 | 54.7 | 67.6 | 0.00 | 0.00 | 0.00 | 1 | 1012.7 |
| 20260503150341 | 12 | 148 | 56.3 | 67.6 | 0.00 | 0.00 | 0.00 | 1 | 1012.8 |
| 20260503150240 | 12 | 141 | 56.3 | 67.6 | 0.00 | 0.00 | 0.00 | 1 | 1012.7 |
| 20260503150140 | 12 | 144 | 54.7 | 67.6 | 0.00 | 0.00 | 0.00 | 1 | 1012.7 |
| 20260503140228 | 12 | 146 | 54.7 | 72.4 | 0.00 | 0.00 | 0.00 | 1 | 1012.6 |
| 20260503140128 | 12 | 146 | 54.7 | 72.4 | 0.00 | 0.00 | 0.00 | 1 | 1012.7 |
| 20260503131343 | 13 | 147 | 57.9 | 70.8 | 0.00 | 0.00 | 0.00 | 1 | 1012.6 |
| 20260503131242 | 13 | 145 | 57.9 | 70.8 | 0.00 | 0.00 | 0.00 | 1 | 1012.6 |
| 20260503131142 | 13 | 142 | 57.9 | 70.8 | 0.00 | 0.00 | 0.00 | 1 | 1012.6 |
| 20260503131042 | 13 | 144 | 56.3 | 70.8 | 0.00 | 0.00 | 0.00 | 1 | 1012.6 |
| 20260503130942 | 13 | 143 | 56.3 | 70.8 | 0.00 | 0.00 | 0.00 | 1 | 1012.7 |
| 20260503130842 | 13 | 148 | 56.3 | 70.8 | 0.00 | 0.00 | 0.00 | 1 | 1012.6 |
| 20260503130742 | 13 | 139 | 56.3 | 70.8 | 0.00 | 0.00 | 0.00 | 1 | 1012.5 |
| 20260503130644 | 13 | 140 | 56.3 | 70.8 | 0.00 | 0.00 | 0.00 | 1 | 1012.6 |
| 20260503130544 | 13 | 145 | 56.3 | 70.8 | 0.00 | 0.00 | 0.00 | 1 | 1012.5 |
| 20260503130441 | 13 | 148 | 56.3 | 70.8 | 0.00 | 0.00 | 0.00 | 1 | 1012.6 |
| 20260503130341 | 13 | 142 | 56.3 | 70.8 | 0.00 | 0.00 | 0.00 | 1 | 1012.6 |
| 20260503130239 | 13 | 146 | 56.3 | 70.8 | 0.00 | 0.00 | 0.00 | 1 | 1012.5 |
| 20260503130140 | 13 | 145 | 54.7 | 70.8 | 0.00 | 0.00 | 0.00 | 1 | 1012.5 |
| 20260503120152 | 12 | 139 | 48.3 | 62.8 | 0.00 | 0.00 | 0.00 | 1 | 1012.7 |
| 20260503120118 | 12 | 141 | 49.9 | 66.0 | 0.00 | 0.00 | 0.00 | 1 | 1012.9 |
| 20260503120109 | 12 | 142 | 49.9 | 66.0 | 0.00 | 0.00 | 0.00 | 1 | 1012.8 |